Wetterdaten: Montag, 17.10.2022
Datum Zeit Temp. 2m Temp +5 cm Feuchte A. Luftdruck Regen Wind Richtung Richtung Sonnenschein UV Solar Taupunkt Windchill Windben
17.10.2022 00:00 14,7 C 13,3 C 91 % 1019,2 hPa 0,0 l/m 7,2 km/h (2 Bft) SO 129 0 min 0,0 UV-I 0 W/m 13,2 C 14,2 C 14,5 km/h (3 Bft)
17.10.2022 00:03 14,8 C 13,3 C 91 % 1019,3 hPa 0,0 l/m 7,1 km/h (2 Bft) S 169 0 min 0,0 UV-I 0 W/m 13,3 C 14,4 C 12,9 km/h (3 Bft)
17.10.2022 00:06 14,8 C 13,3 C 91 % 1019,2 hPa 0,0 l/m 7,4 km/h (2 Bft) SO 146 0 min 0,0 UV-I 0 W/m 13,3 C 14,2 C 12,9 km/h (3 Bft)
17.10.2022 00:09 14,8 C 13,3 C 91 % 1019,2 hPa 0,0 l/m 8,5 km/h (2 Bft) S-SO 149 0 min 0,0 UV-I 0 W/m 13,3 C 13,6 C 14,5 km/h (3 Bft)
17.10.2022 00:12 14,9 C 13,9 C 91 % 1019,2 hPa 0,0 l/m 9,0 km/h (2 Bft) S-SO 148 0 min 0,0 UV-I 0 W/m 13,4 C 13,5 C 16,1 km/h (3 Bft)
17.10.2022 00:15 14,9 C 13,9 C 91 % 1019,2 hPa 0,0 l/m 7,4 km/h (2 Bft) SO 140 0 min 0,0 UV-I 0 W/m 13,4 C 14,3 C 14,5 km/h (3 Bft)
17.10.2022 00:18 14,9 C 13,9 C 91 % 1019,2 hPa 0,0 l/m 8,2 km/h (2 Bft) SO 140 0 min 0,0 UV-I 0 W/m 13,4 C 13,9 C 16,1 km/h (3 Bft)
17.10.2022 00:21 15,0 C 13,9 C 91 % 1019,2 hPa 0,0 l/m 9,2 km/h (2 Bft) SO 137 0 min 0,0 UV-I 0 W/m 13,5 C 13,5 C 16,1 km/h (3 Bft)
17.10.2022 00:24 15,0 C 13,9 C 90 % 1019,3 hPa 0,0 l/m 7,7 km/h (2 Bft) SO 146 0 min 0,0 UV-I 0 W/m 13,4 C 14,3 C 14,5 km/h (3 Bft)
17.10.2022 00:27 15,1 C 13,9 C 90 % 1019,3 hPa 0,0 l/m 8,0 km/h (2 Bft) S-SO 166 0 min 0,0 UV-I 0 W/m 13,5 C 14,2 C 14,5 km/h (3 Bft)
17.10.2022 00:30 15,1 C 13,9 C 90 % 1019,4 hPa 0,0 l/m 6,5 km/h (2 Bft) SO 144 0 min 0,0 UV-I 0 W/m 13,5 C 15,1 C 11,3 km/h (2 Bft)
17.10.2022 00:33 15,1 C 13,9 C 90 % 1019,3 hPa 0,0 l/m 8,1 km/h (2 Bft) SO 138 0 min 0,0 UV-I 0 W/m 13,5 C 14,2 C 17,7 km/h (3 Bft)
17.10.2022 00:36 15,1 C 13,9 C 90 % 1019,3 hPa 0,0 l/m 9,3 km/h (2 Bft) SO 140 0 min 0,0 UV-I 0 W/m 13,5 C 13,6 C 16,1 km/h (3 Bft)
17.10.2022 00:39 15,1 C 13,9 C 90 % 1019,3 hPa 0,0 l/m 8,4 km/h (2 Bft) SO 137 0 min 0,0 UV-I 0 W/m 13,5 C 14,0 C 14,5 km/h (3 Bft)
17.10.2022 00:42 15,1 C 13,9 C 90 % 1019,3 hPa 0,0 l/m 8,2 km/h (2 Bft) S-SO 167 0 min 0,0 UV-I 0 W/m 13,5 C 14,1 C 17,7 km/h (3 Bft)
17.10.2022 00:45 15,1 C 13,9 C 90 % 1019,4 hPa 0,0 l/m 9,9 km/h (2 Bft) SO 140 0 min 0,0 UV-I 0 W/m 13,5 C 13,3 C 14,5 km/h (3 Bft)
17.10.2022 00:48 15,1 C 13,9 C 90 % 1019,4 hPa 0,0 l/m 9,3 km/h (2 Bft) S 174 0 min 0,0 UV-I 0 W/m 13,5 C 13,6 C 19,3 km/h (3 Bft)
17.10.2022 00:51 15,1 C 13,9 C 90 % 1019,5 hPa 0,0 l/m 8,9 km/h (2 Bft) SO 137 0 min 0,0 UV-I 0 W/m 13,5 C 13,7 C 14,5 km/h (3 Bft)
17.10.2022 00:54 15,1 C 13,9 C 90 % 1019,5 hPa 0,0 l/m 7,4 km/h (2 Bft) SO 142 0 min 0,0 UV-I 0 W/m 13,5 C 14,5 C 12,9 km/h (3 Bft)
17.10.2022 00:57 15,0 C 13,9 C 90 % 1019,6 hPa 0,0 l/m 5,2 km/h (1 Bft) SO 146 0 min 0,0 UV-I 0 W/m 13,4 C 15,0 C 9,7 km/h (2 Bft)
17.10.2022 01:00 14,9 C 13,9 C 90 % 1019,5 hPa 0,0 l/m 6,9 km/h (2 Bft) S 190 0 min 0,0 UV-I 0 W/m 13,3 C 14,6 C 11,3 km/h (2 Bft)
17.10.2022 01:03 15,0 C 13,9 C 90 % 1019,5 hPa 0,0 l/m 9,2 km/h (2 Bft) SO 126 0 min 0,0 UV-I 0 W/m 13,4 C 13,5 C 16,1 km/h (3 Bft)
17.10.2022 01:06 15,1 C 13,9 C 90 % 1019,4 hPa 0,0 l/m 8,3 km/h (2 Bft) SO 126 0 min 0,0 UV-I 0 W/m 13,5 C 14,0 C 16,1 km/h (3 Bft)
17.10.2022 01:09 15,0 C 13,9 C 90 % 1019,4 hPa 0,0 l/m 7,7 km/h (2 Bft) SO 128 0 min 0,0 UV-I 0 W/m 13,4 C 14,3 C 14,5 km/h (3 Bft)
17.10.2022 01:12 15,1 C 13,9 C 90 % 1019,5 hPa 0,0 l/m 9,7 km/h (2 Bft) S-SO 152 0 min 0,0 UV-I 0 W/m 13,5 C 13,4 C 19,3 km/h (3 Bft)
17.10.2022 01:15 15,1 C 13,9 C 90 % 1019,4 hPa 0,0 l/m 9,1 km/h (2 Bft) S-SO 153 0 min 0,0 UV-I 0 W/m 13,5 C 13,6 C 19,3 km/h (3 Bft)
17.10.2022 01:18 15,1 C 13,9 C 90 % 1019,5 hPa 0,0 l/m 9,0 km/h (2 Bft) SO 130 0 min 0,0 UV-I 0 W/m 13,5 C 13,7 C 17,7 km/h (3 Bft)
17.10.2022 01:21 15,2 C 13,9 C 90 % 1019,5 hPa 0,0 l/m 9,4 km/h (2 Bft) SO 132 0 min 0,0 UV-I 0 W/m 13,6 C 13,6 C 17,7 km/h (3 Bft)
17.10.2022 01:24 15,2 C 13,9 C 89 % 1019,6 hPa 0,0 l/m 7,0 km/h (2 Bft) S-SO 161 0 min 0,0 UV-I 0 W/m 13,4 C 14,9 C 12,9 km/h (3 Bft)
17.10.2022 01:27 15,2 C 13,9 C 89 % 1019,6 hPa 0,0 l/m 6,2 km/h (2 Bft) O-SO 113 0 min 0,0 UV-I 0 W/m 13,4 C 15,2 C 12,9 km/h (3 Bft)
17.10.2022 01:30 15,1 C 13,9 C 90 % 1019,7 hPa 0,0 l/m 6,4 km/h (2 Bft) O-SO 102 0 min 0,0 UV-I 0 W/m 13,5 C 15,1 C 11,3 km/h (2 Bft)
17.10.2022 01:33 15,1 C 13,9 C 90 % 1019,7 hPa 0,0 l/m 4,7 km/h (1 Bft) S-SO 156 0 min 0,0 UV-I 0 W/m 13,5 C 15,1 C 8,0 km/h (2 Bft)
17.10.2022 01:36 15,0 C 13,9 C 90 % 1019,7 hPa 0,0 l/m 5,1 km/h (1 Bft) SO 144 0 min 0,0 UV-I 0 W/m 13,4 C 15,0 C 11,3 km/h (2 Bft)
17.10.2022 01:39 15,0 C 13,9 C 90 % 1019,7 hPa 0,0 l/m 6,5 km/h (2 Bft) S-SO 153 0 min 0,0 UV-I 0 W/m 13,4 C 15,0 C 12,9 km/h (3 Bft)
17.10.2022 01:42 15,1 C 13,9 C 90 % 1019,7 hPa 0,0 l/m 5,9 km/h (2 Bft) S-SO 165 0 min 0,0 UV-I 0 W/m 13,5 C 15,1 C 12,9 km/h (3 Bft)
17.10.2022 01:45 15,1 C 13,9 C 90 % 1019,8 hPa 0,0 l/m 10,0 km/h (2 Bft) S-SO 153 0 min 0,0 UV-I 0 W/m 13,5 C 13,2 C 22,5 km/h (4 Bft)
17.10.2022 01:48 15,1 C 13,9 C 89 % 1019,8 hPa 0,0 l/m 7,8 km/h (2 Bft) S 170 0 min 0,0 UV-I 0 W/m 13,3 C 14,3 C 19,3 km/h (3 Bft)
17.10.2022 01:51 15,1 C 13,3 C 89 % 1019,8 hPa 0,0 l/m 6,0 km/h (2 Bft) S 184 0 min 0,0 UV-I 0 W/m 13,3 C 15,1 C 19,3 km/h (3 Bft)
17.10.2022 01:54 15,1 C 13,9 C 90 % 1019,8 hPa 0,0 l/m 7,9 km/h (2 Bft) S-SO 150 0 min 0,0 UV-I 0 W/m 13,5 C 14,3 C 12,9 km/h (3 Bft)
17.10.2022 01:57 15,2 C 13,9 C 89 % 1019,8 hPa 0,0 l/m 6,4 km/h (2 Bft) S 173 0 min 0,0 UV-I 0 W/m 13,4 C 15,2 C 11,3 km/h (2 Bft)
17.10.2022 02:00 15,1 C 13,9 C 89 % 1019,9 hPa 0,0 l/m 5,4 km/h (1 Bft) S 169 0 min 0,0 UV-I 0 W/m 13,3 C 15,1 C 8,0 km/h (2 Bft)
17.10.2022 02:03 15,1 C 13,3 C 89 % 1020,0 hPa 0,0 l/m 5,4 km/h (1 Bft) S-SO 165 0 min 0,0 UV-I 0 W/m 13,3 C 15,1 C 8,0 km/h (2 Bft)
17.10.2022 02:06 14,9 C 13,3 C 89 % 1020,0 hPa 0,0 l/m 4,8 km/h (1 Bft) S 188 0 min 0,0 UV-I 0 W/m 13,1 C 14,9 C 11,3 km/h (2 Bft)
17.10.2022 02:09 14,7 C 12,8 C 89 % 1020,0 hPa 0,0 l/m 3,3 km/h (1 Bft) S 180 0 min 0,0 UV-I 0 W/m 12,9 C 14,7 C 4,8 km/h (1 Bft)
17.10.2022 02:12 14,5 C 12,8 C 90 % 1019,9 hPa 0,0 l/m 3,5 km/h (1 Bft) S-SO 163 0 min 0,0 UV-I 0 W/m 12,9 C 14,5 C 8,0 km/h (2 Bft)
17.10.2022 02:15 14,6 C 12,8 C 90 % 1020,0 hPa 0,0 l/m 5,6 km/h (1 Bft) S 182 0 min 0,0 UV-I 0 W/m 13,0 C 14,6 C 11,3 km/h (2 Bft)
17.10.2022 02:18 14,6 C 12,8 C 90 % 1020,0 hPa 0,0 l/m 5,5 km/h (1 Bft) S-SO 152 0 min 0,0 UV-I 0 W/m 13,0 C 14,6 C 14,5 km/h (3 Bft)
17.10.2022 02:21 14,7 C 13,3 C 90 % 1020,0 hPa 0,0 l/m 4,6 km/h (1 Bft) S-SW 194 0 min 0,0 UV-I 0 W/m 13,1 C 14,7 C 8,0 km/h (2 Bft)
17.10.2022 02:24 14,7 C 12,8 C 90 % 1020,0 hPa 0,0 l/m 4,6 km/h (1 Bft) S-SO 150 0 min 0,0 UV-I 0 W/m 13,1 C 14,7 C 9,7 km/h (2 Bft)
17.10.2022 02:27 14,8 C 12,8 C 90 % 1020,1 hPa 0,0 l/m 5,1 km/h (1 Bft) S 175 0 min 0,0 UV-I 0 W/m 13,2 C 14,8 C 11,3 km/h (2 Bft)
17.10.2022 02:30 14,8 C 12,2 C 90 % 1020,0 hPa 0,0 l/m 3,6 km/h (1 Bft) S 176 0 min 0,0 UV-I 0 W/m 13,2 C 14,8 C 6,4 km/h (2 Bft)
17.10.2022 02:33 14,7 C 12,8 C 90 % 1020,1 hPa 0,0 l/m 4,6 km/h (1 Bft) S-SO 161 0 min 0,0 UV-I 0 W/m 13,1 C 14,7 C 11,3 km/h (2 Bft)
17.10.2022 02:36 14,6 C 12,2 C 90 % 1020,1 hPa 0,0 l/m 5,0 km/h (1 Bft) S-SO 148 0 min 0,0 UV-I 0 W/m 13,0 C 14,6 C 9,7 km/h (2 Bft)
17.10.2022 02:39 14,6 C 12,8 C 90 % 1020,2 hPa 0,0 l/m 4,8 km/h (1 Bft) SO 134 0 min 0,0 UV-I 0 W/m 13,0 C 14,6 C 9,7 km/h (2 Bft)
17.10.2022 02:42 14,4 C 12,2 C 90 % 1020,1 hPa 0,0 l/m 4,7 km/h (1 Bft) SO 134 0 min 0,0 UV-I 0 W/m 12,8 C 14,4 C 9,7 km/h (2 Bft)
17.10.2022 02:45 14,5 C 12,8 C 90 % 1020,2 hPa 0,0 l/m 5,5 km/h (1 Bft) S-SO 152 0 min 0,0 UV-I 0 W/m 12,9 C 14,5 C 11,3 km/h (2 Bft)
17.10.2022 02:48 14,5 C 12,8 C 90 % 1020,1 hPa 0,0 l/m 6,2 km/h (2 Bft) S-SO 161 0 min 0,0 UV-I 0 W/m 12,9 C 14,5 C 11,3 km/h (2 Bft)
17.10.2022 02:51 14,5 C 12,8 C 90 % 1020,1 hPa 0,0 l/m 4,6 km/h (1 Bft) SO 142 0 min 0,0 UV-I 0 W/m 12,9 C 14,5 C 8,0 km/h (2 Bft)
17.10.2022 02:54 14,6 C 12,8 C 90 % 1020,2 hPa 0,0 l/m 2,9 km/h (1 Bft) SO 143 0 min 0,0 UV-I 0 W/m 13,0 C 14,6 C 4,8 km/h (1 Bft)
17.10.2022 02:57 14,5 C 12,8 C 90 % 1020,2 hPa 0,0 l/m 3,6 km/h (1 Bft) S-SO 164 0 min 0,0 UV-I 0 W/m 12,9 C 14,5 C 6,4 km/h (2 Bft)
17.10.2022 03:00 14,4 C 12,8 C 90 % 1020,3 hPa 0,0 l/m 4,4 km/h (1 Bft) SO 144 0 min 0,0 UV-I 0 W/m 12,8 C 14,4 C 8,0 km/h (2 Bft)
17.10.2022 03:03 14,4 C 12,8 C 90 % 1020,2 hPa 0,0 l/m 4,5 km/h (1 Bft) S-SO 153 0 min 0,0 UV-I 0 W/m 12,8 C 14,4 C 9,7 km/h (2 Bft)
17.10.2022 03:06 14,3 C 12,8 C 90 % 1020,3 hPa 0,0 l/m 4,0 km/h (1 Bft) SO 142 0 min 0,0 UV-I 0 W/m 12,7 C 14,3 C 6,4 km/h (2 Bft)
17.10.2022 03:09 14,3 C 12,8 C 91 % 1020,3 hPa 0,0 l/m 3,7 km/h (1 Bft) SO 141 0 min 0,0 UV-I 0 W/m 12,8 C 14,3 C 6,4 km/h (2 Bft)
17.10.2022 03:12 14,3 C 12,8 C 91 % 1020,2 hPa 0,0 l/m 2,5 km/h (1 Bft) S-SO 149 0 min 0,0 UV-I 0 W/m 12,8 C 14,3 C 4,8 km/h (1 Bft)
17.10.2022 03:15 14,2 C 12,8 C 91 % 1020,2 hPa 0,0 l/m 5,7 km/h (1 Bft) S-SO 153 0 min 0,0 UV-I 0 W/m 12,8 C 14,2 C 12,9 km/h (3 Bft)
17.10.2022 03:18 14,2 C 12,8 C 91 % 1020,3 hPa 0,0 l/m 6,4 km/h (2 Bft) SO 126 0 min 0,0 UV-I 0 W/m 12,8 C 14,2 C 11,3 km/h (2 Bft)
17.10.2022 03:21 14,2 C 12,8 C 91 % 1020,3 hPa 0,0 l/m 6,8 km/h (2 Bft) SO 142 0 min 0,0 UV-I 0 W/m 12,8 C 14,0 C 14,5 km/h (3 Bft)
17.10.2022 03:24 14,2 C 12,8 C 91 % 1020,3 hPa 0,0 l/m 6,1 km/h (2 Bft) SO 130 0 min 0,0 UV-I 0 W/m 12,8 C 14,2 C 12,9 km/h (3 Bft)
17.10.2022 03:27 14,2 C 12,8 C 91 % 1020,3 hPa 0,0 l/m 5,3 km/h (1 Bft) S-SO 148 0 min 0,0 UV-I 0 W/m 12,8 C 14,2 C 9,7 km/h (2 Bft)
17.10.2022 03:30 14,2 C 12,8 C 91 % 1020,4 hPa 0,0 l/m 8,5 km/h (2 Bft) S-SO 160 0 min 0,0 UV-I 0 W/m 12,8 C 13,0 C 14,5 km/h (3 Bft)
17.10.2022 03:33 14,1 C 12,8 C 91 % 1020,5 hPa 0,0 l/m 6,9 km/h (2 Bft) S 175 0 min 0,0 UV-I 0 W/m 12,7 C 13,8 C 14,5 km/h (3 Bft)
17.10.2022 03:36 14,2 C 12,8 C 91 % 1020,5 hPa 0,0 l/m 8,6 km/h (2 Bft) SO 145 0 min 0,0 UV-I 0 W/m 12,8 C 12,9 C 14,5 km/h (3 Bft)
17.10.2022 03:39 14,2 C 13,3 C 91 % 1020,3 hPa 0,0 l/m 9,3 km/h (2 Bft) SO 139 0 min 0,0 UV-I 0 W/m 12,8 C 12,6 C 19,3 km/h (3 Bft)
17.10.2022 03:42 14,2 C 13,3 C 91 % 1020,3 hPa 0,0 l/m 9,5 km/h (2 Bft) SO 141 0 min 0,0 UV-I 0 W/m 12,8 C 12,5 C 16,1 km/h (3 Bft)
17.10.2022 03:45 14,2 C 13,3 C 91 % 1020,4 hPa 0,0 l/m 9,9 km/h (2 Bft) O-SO 103 0 min 0,0 UV-I 0 W/m 12,8 C 12,3 C 14,5 km/h (3 Bft)
17.10.2022 03:48 14,2 C 13,3 C 91 % 1020,4 hPa 0,0 l/m 10,4 km/h (2 Bft) S-SO 167 0 min 0,0 UV-I 0 W/m 12,8 C 12,0 C 20,9 km/h (4 Bft)
17.10.2022 03:51 14,1 C 12,8 C 91 % 1020,4 hPa 0,0 l/m 7,1 km/h (2 Bft) S-SO 155 0 min 0,0 UV-I 0 W/m 12,7 C 13,7 C 11,3 km/h (2 Bft)
17.10.2022 03:54 14,1 C 13,3 C 92 % 1020,3 hPa 0,0 l/m 10,5 km/h (2 Bft) S-SO 159 0 min 0,0 UV-I 0 W/m 12,8 C 11,9 C 17,7 km/h (3 Bft)
17.10.2022 03:57 14,1 C 13,3 C 92 % 1020,3 hPa 0,0 l/m 9,8 km/h (2 Bft) S-SO 155 0 min 0,0 UV-I 0 W/m 12,8 C 12,2 C 16,1 km/h (3 Bft)
17.10.2022 04:00 14,1 C 13,3 C 92 % 1020,3 hPa 0,0 l/m 7,0 km/h (2 Bft) SO 131 0 min 0,0 UV-I 0 W/m 12,8 C 13,7 C 14,5 km/h (3 Bft)
17.10.2022 04:03 14,1 C 12,8 C 91 % 1020,3 hPa 0,0 l/m 8,0 km/h (2 Bft) S 177 0 min 0,0 UV-I 0 W/m 12,7 C 13,2 C 12,9 km/h (3 Bft)
17.10.2022 04:06 14,1 C 13,3 C 92 % 1020,3 hPa 0,0 l/m 9,0 km/h (2 Bft) S-SO 166 0 min 0,0 UV-I 0 W/m 12,8 C 12,6 C 17,7 km/h (3 Bft)
17.10.2022 04:09 14,1 C 12,8 C 91 % 1020,2 hPa 0,0 l/m 7,7 km/h (2 Bft) S-SO 159 0 min 0,0 UV-I 0 W/m 12,7 C 13,3 C 12,9 km/h (3 Bft)
17.10.2022 04:12 14,1 C 12,8 C 91 % 1020,3 hPa 0,0 l/m 7,8 km/h (2 Bft) SO 140 0 min 0,0 UV-I 0 W/m 12,7 C 13,3 C 12,9 km/h (3 Bft)
17.10.2022 04:15 14,1 C 13,3 C 91 % 1020,3 hPa 0,0 l/m 10,8 km/h (2 Bft) SO 130 0 min 0,0 UV-I 0 W/m 12,7 C 11,8 C 17,7 km/h (3 Bft)
17.10.2022 04:18 14,1 C 13,3 C 91 % 1020,1 hPa 0,0 l/m 9,9 km/h (2 Bft) SO 131 0 min 0,0 UV-I 0 W/m 12,7 C 12,2 C 16,1 km/h (3 Bft)
17.10.2022 04:21 14,1 C 13,3 C 91 % 1020,3 hPa 0,0 l/m 6,7 km/h (2 Bft) S-SO 159 0 min 0,0 UV-I 0 W/m 12,7 C 13,9 C 11,3 km/h (2 Bft)
17.10.2022 04:24 14,1 C 13,3 C 91 % 1020,4 hPa 0,0 l/m 7,6 km/h (2 Bft) S 184 0 min 0,0 UV-I 0 W/m 12,7 C 13,4 C 12,9 km/h (3 Bft)
17.10.2022 04:27 14,1 C 12,8 C 91 % 1020,4 hPa 0,0 l/m 6,5 km/h (2 Bft) SO 144 0 min 0,0 UV-I 0 W/m 12,7 C 14,1 C 9,7 km/h (2 Bft)
17.10.2022 04:30 14,1 C 13,3 C 91 % 1020,3 hPa 0,0 l/m 7,6 km/h (2 Bft) SO 144 0 min 0,0 UV-I 0 W/m 12,7 C 13,4 C 14,5 km/h (3 Bft)
17.10.2022 04:33 14,1 C 12,8 C 91 % 1020,4 hPa 0,0 l/m 8,8 km/h (2 Bft) SO 136 0 min 0,0 UV-I 0 W/m 12,7 C 12,7 C 17,7 km/h (3 Bft)
17.10.2022 04:36 14,1 C 13,3 C 91 % 1020,2 hPa 0,0 l/m 11,4 km/h (2 Bft) S-SO 148 0 min 0,0 UV-I 0 W/m 12,7 C 11,5 C 16,1 km/h (3 Bft)
17.10.2022 04:39 14,1 C 13,3 C 91 % 1020,2 hPa 0,0 l/m 12,3 km/h (3 Bft) S-SO 163 0 min 0,0 UV-I 0 W/m 12,7 C 11,1 C 20,9 km/h (4 Bft)
17.10.2022 04:42 14,1 C 13,3 C 91 % 1020,2 hPa 0,0 l/m 11,0 km/h (2 Bft) S-SO 148 0 min 0,0 UV-I 0 W/m 12,7 C 11,7 C 20,9 km/h (4 Bft)
17.10.2022 04:45 14,1 C 13,3 C 91 % 1020,2 hPa 0,0 l/m 10,9 km/h (2 Bft) S-SO 150 0 min 0,0 UV-I 0 W/m 12,7 C 11,7 C 19,3 km/h (3 Bft)
17.10.2022 04:48 14,1 C 13,3 C 91 % 1020,3 hPa 0,0 l/m 14,0 km/h (3 Bft) SO 134 0 min 0,0 UV-I 0 W/m 12,7 C 10,5 C 22,5 km/h (4 Bft)
17.10.2022 04:51 14,1 C 13,3 C 91 % 1020,3 hPa 0,0 l/m 14,2 km/h (3 Bft) S-SO 152 0 min 0,0 UV-I 0 W/m 12,7 C 10,4 C 20,9 km/h (4 Bft)
17.10.2022 04:54 14,1 C 13,3 C 91 % 1020,3 hPa 0,0 l/m 9,0 km/h (2 Bft) SO 143 0 min 0,0 UV-I 0 W/m 12,7 C 12,6 C 17,7 km/h (3 Bft)
17.10.2022 04:57 14,1 C 13,3 C 91 % 1020,5 hPa 0,0 l/m 9,6 km/h (2 Bft) S-SO 156 0 min 0,0 UV-I 0 W/m 12,7 C 12,3 C 17,7 km/h (3 Bft)
17.10.2022 05:00 14,0 C 12,8 C 91 % 1020,4 hPa 0,0 l/m 7,9 km/h (2 Bft) S-SO 168 0 min 0,0 UV-I 0 W/m 12,6 C 13,1 C 14,5 km/h (3 Bft)
17.10.2022 05:03 14,0 C 12,8 C 91 % 1020,5 hPa 0,0 l/m 8,6 km/h (2 Bft) SO 146 0 min 0,0 UV-I 0 W/m 12,6 C 12,7 C 16,1 km/h (3 Bft)
17.10.2022 05:06 14,1 C 12,8 C 91 % 1020,4 hPa 0,0 l/m 10,6 km/h (2 Bft) S-SO 150 0 min 0,0 UV-I 0 W/m 12,7 C 11,8 C 17,7 km/h (3 Bft)
17.10.2022 05:09 14,1 C 12,8 C 91 % 1020,3 hPa 0,0 l/m 7,1 km/h (2 Bft) O-SO 123 0 min 0,0 UV-I 0 W/m 12,7 C 13,7 C 11,3 km/h (2 Bft)
17.10.2022 05:12 13,9 C 12,8 C 91 % 1020,4 hPa 0,0 l/m 7,2 km/h (2 Bft) SO 144 0 min 0,0 UV-I 0 W/m 12,5 C 13,4 C 14,5 km/h (3 Bft)
17.10.2022 05:15 14,0 C 13,3 C 91 % 1020,3 hPa 0,0 l/m 9,3 km/h (2 Bft) S-SO 150 0 min 0,0 UV-I 0 W/m 12,6 C 12,4 C 19,3 km/h (3 Bft)
17.10.2022 05:18 14,0 C 12,8 C 91 % 1020,4 hPa 0,0 l/m 10,1 km/h (2 Bft) SO 132 0 min 0,0 UV-I 0 W/m 12,6 C 12,0 C 19,3 km/h (3 Bft)
17.10.2022 05:21 14,1 C 13,3 C 91 % 1020,4 hPa 0,0 l/m 13,3 km/h (3 Bft) SO 135 0 min 0,0 UV-I 0 W/m 12,7 C 10,7 C 20,9 km/h (4 Bft)
17.10.2022 05:24 14,0 C 12,8 C 91 % 1020,5 hPa 0,0 l/m 9,7 km/h (2 Bft) SO 145 0 min 0,0 UV-I 0 W/m 12,6 C 12,2 C 17,7 km/h (3 Bft)
17.10.2022 05:27 13,9 C 12,8 C 91 % 1020,5 hPa 0,0 l/m 11,7 km/h (2 Bft) S-SO 167 0 min 0,0 UV-I 0 W/m 12,5 C 11,1 C 20,9 km/h (4 Bft)
17.10.2022 05:30 13,9 C 12,8 C 91 % 1020,5 hPa 0,0 l/m 10,2 km/h (2 Bft) SO 137 0 min 0,0 UV-I 0 W/m 12,5 C 11,8 C 20,9 km/h (4 Bft)
17.10.2022 05:33 13,9 C 12,8 C 91 % 1020,5 hPa 0,0 l/m 8,7 km/h (2 Bft) SO 132 0 min 0,0 UV-I 0 W/m 12,5 C 12,6 C 16,1 km/h (3 Bft)
17.10.2022 05:36 13,9 C 12,8 C 91 % 1020,5 hPa 0,0 l/m 12,1 km/h (2 Bft) SO 132 0 min 0,0 UV-I 0 W/m 12,5 C 11,0 C 20,9 km/h (4 Bft)
17.10.2022 05:39 13,9 C 12,8 C 91 % 1020,5 hPa 0,0 l/m 11,3 km/h (2 Bft) S 172 0 min 0,0 UV-I 0 W/m 12,5 C 11,3 C 19,3 km/h (3 Bft)
17.10.2022 05:42 13,9 C 12,8 C 91 % 1020,6 hPa 0,0 l/m 12,6 km/h (3 Bft) S-SO 160 0 min 0,0 UV-I 0 W/m 12,5 C 10,8 C 20,9 km/h (4 Bft)
17.10.2022 05:45 13,9 C 12,8 C 91 % 1020,7 hPa 0,0 l/m 11,6 km/h (2 Bft) S 187 0 min 0,0 UV-I 0 W/m 12,5 C 11,2 C 19,3 km/h (3 Bft)
17.10.2022 05:48 13,9 C 12,8 C 91 % 1020,6 hPa 0,0 l/m 10,9 km/h (2 Bft) SO 139 0 min 0,0 UV-I 0 W/m 12,5 C 11,5 C 19,3 km/h (3 Bft)
17.10.2022 05:51 13,9 C 12,8 C 91 % 1020,5 hPa 0,0 l/m 12,9 km/h (3 Bft) S-SO 153 0 min 0,0 UV-I 0 W/m 12,5 C 10,6 C 22,5 km/h (4 Bft)
17.10.2022 05:54 13,9 C 12,8 C 91 % 1020,6 hPa 0,0 l/m 10,9 km/h (2 Bft) S-SO 157 0 min 0,0 UV-I 0 W/m 12,5 C 11,5 C 16,1 km/h (3 Bft)
17.10.2022 05:57 13,9 C 12,8 C 91 % 1020,7 hPa 0,0 l/m 7,6 km/h (2 Bft) SO 145 0 min 0,0 UV-I 0 W/m 12,5 C 13,2 C 12,9 km/h (3 Bft)
17.10.2022 06:00 13,8 C 12,8 C 91 % 1020,5 hPa 0,0 l/m 8,8 km/h (2 Bft) SO 144 0 min 0,0 UV-I 0 W/m 12,4 C 12,4 C 14,5 km/h (3 Bft)
17.10.2022 06:03 13,8 C 12,8 C 91 % 1020,6 hPa 0,0 l/m 11,2 km/h (2 Bft) S-SO 158 0 min 0,0 UV-I 0 W/m 12,4 C 11,2 C 17,7 km/h (3 Bft)
17.10.2022 06:06 13,8 C 12,8 C 91 % 1020,7 hPa 0,0 l/m 10,0 km/h (2 Bft) SO 137 0 min 0,0 UV-I 0 W/m 12,4 C 11,8 C 14,5 km/h (3 Bft)
17.10.2022 06:09 13,8 C 12,8 C 91 % 1020,6 hPa 0,0 l/m 9,9 km/h (2 Bft) S-SO 150 0 min 0,0 UV-I 0 W/m 12,4 C 11,8 C 14,5 km/h (3 Bft)
17.10.2022 06:12 13,7 C 12,8 C 91 % 1020,5 hPa 0,0 l/m 9,7 km/h (2 Bft) S-SO 148 0 min 0,0 UV-I 0 W/m 12,3 C 11,8 C 17,7 km/h (3 Bft)
17.10.2022 06:15 13,8 C 12,8 C 91 % 1020,6 hPa 0,0 l/m 11,3 km/h (2 Bft) SO 135 0 min 0,0 UV-I 0 W/m 12,4 C 11,2 C 16,1 km/h (3 Bft)
17.10.2022 06:18 13,8 C 12,8 C 91 % 1020,7 hPa 0,0 l/m 8,8 km/h (2 Bft) SO 143 0 min 0,0 UV-I 0 W/m 12,4 C 12,4 C 14,5 km/h (3 Bft)
17.10.2022 06:21 13,7 C 12,8 C 91 % 1020,7 hPa 0,0 l/m 9,6 km/h (2 Bft) S-SO 163 0 min 0,0 UV-I 0 W/m 12,3 C 11,9 C 20,9 km/h (4 Bft)
17.10.2022 06:24 13,7 C 12,8 C 91 % 1020,6 hPa 0,0 l/m 10,4 km/h (2 Bft) S-SO 148 0 min 0,0 UV-I 0 W/m 12,3 C 11,5 C 14,5 km/h (3 Bft)
17.10.2022 06:27 13,7 C 12,8 C 91 % 1020,7 hPa 0,0 l/m 11,3 km/h (2 Bft) S-SO 158 0 min 0,0 UV-I 0 W/m 12,3 C 11,1 C 19,3 km/h (3 Bft)
17.10.2022 06:30 13,7 C 12,8 C 91 % 1020,6 hPa 0,0 l/m 11,4 km/h (2 Bft) SO 126 0 min 0,0 UV-I 0 W/m 12,3 C 11,0 C 17,7 km/h (3 Bft)
17.10.2022 06:33 13,7 C 12,8 C 91 % 1020,5 hPa 0,0 l/m 12,1 km/h (2 Bft) SO 125 0 min 0,0 UV-I 0 W/m 12,3 C 10,7 C 17,7 km/h (3 Bft)
17.10.2022 06:36 13,7 C 12,8 C 91 % 1020,5 hPa 0,0 l/m 15,3 km/h (3 Bft) SO 137 0 min 0,0 UV-I 0 W/m 12,3 C 9,5 C 25,7 km/h (4 Bft)
17.10.2022 06:39 13,7 C 12,8 C 91 % 1020,6 hPa 0,0 l/m 13,0 km/h (3 Bft) SO 142 0 min 0,0 UV-I 0 W/m 12,3 C 10,4 C 19,3 km/h (3 Bft)
17.10.2022 06:42 13,7 C 12,8 C 91 % 1020,5 hPa 0,0 l/m 12,0 km/h (2 Bft) SO 142 0 min 0,0 UV-I 0 W/m 12,3 C 10,8 C 19,3 km/h (3 Bft)
17.10.2022 06:45 13,7 C 12,8 C 91 % 1020,6 hPa 0,0 l/m 13,7 km/h (3 Bft) S-SO 156 0 min 0,0 UV-I 0 W/m 12,3 C 10,1 C 19,3 km/h (3 Bft)
17.10.2022 06:48 13,8 C 12,8 C 91 % 1020,6 hPa 0,0 l/m 13,7 km/h (3 Bft) SO 135 0 min 0,0 UV-I 0 W/m 12,4 C 10,2 C 20,9 km/h (4 Bft)
17.10.2022 06:51 13,8 C 12,8 C 90 % 1020,6 hPa 0,0 l/m 12,4 km/h (3 Bft) S-SO 155 0 min 0,0 UV-I 0 W/m 12,2 C 10,7 C 19,3 km/h (3 Bft)
17.10.2022 06:54 13,8 C 12,8 C 90 % 1020,6 hPa 0,0 l/m 13,8 km/h (3 Bft) S-SO 149 0 min 0,0 UV-I 0 W/m 12,2 C 10,2 C 20,9 km/h (4 Bft)
17.10.2022 06:57 13,9 C 12,8 C 90 % 1020,6 hPa 0,0 l/m 13,6 km/h (3 Bft) SO 130 0 min 0,0 UV-I 0 W/m 12,3 C 10,4 C 20,9 km/h (4 Bft)
17.10.2022 07:00 13,9 C 12,8 C 90 % 1020,5 hPa 0,0 l/m 12,8 km/h (3 Bft) O-SO 123 0 min 0,0 UV-I 0 W/m 12,3 C 10,7 C 20,9 km/h (4 Bft)
17.10.2022 07:01 13,9 C 12,8 C 90 % 1020,5 hPa 0,0 l/m 9,7 km/h (2 Bft) SO 135 0 min 0,0 UV-I 0 W/m 12,3 C 12,0 C 14,5 km/h (3 Bft)
17.10.2022 07:03 13,8 C 12,8 C 90 % 1020,5 hPa 0,0 l/m 12,2 km/h (2 Bft) SO 130 0 min 0,0 UV-I 0 W/m 12,2 C 10,8 C 17,7 km/h (3 Bft)
17.10.2022 07:06 13,8 C 12,8 C 90 % 1020,6 hPa 0,0 l/m 13,7 km/h (3 Bft) SO 146 0 min 0,0 UV-I 0 W/m 12,2 C 10,2 C 20,9 km/h (4 Bft)
17.10.2022 07:09 13,8 C 12,8 C 90 % 1020,5 hPa 0,0 l/m 10,3 km/h (2 Bft) S-SO 168 0 min 0,0 UV-I 0 W/m 12,2 C 11,6 C 16,1 km/h (3 Bft)
17.10.2022 07:12 13,8 C 12,8 C 90 % 1020,6 hPa 0,0 l/m 10,9 km/h (2 Bft) S-SO 158 0 min 0,0 UV-I 0 W/m 12,2 C 11,4 C 17,7 km/h (3 Bft)
17.10.2022 07:15 13,8 C 12,8 C 90 % 1020,6 hPa 0,0 l/m 9,5 km/h (2 Bft) S-SO 156 0 min 0,0 UV-I 0 W/m 12,2 C 12,0 C 14,5 km/h (3 Bft)
17.10.2022 07:18 13,7 C 12,8 C 90 % 1020,5 hPa 0,0 l/m 10,2 km/h (2 Bft) SO 133 0 min 0,0 UV-I 0 W/m 12,1 C 11,6 C 19,3 km/h (3 Bft)
17.10.2022 07:21 13,8 C 12,8 C 90 % 1020,6 hPa 0,0 l/m 11,7 km/h (2 Bft) S-SO 163 0 min 0,0 UV-I 0 W/m 12,2 C 11,0 C 17,7 km/h (3 Bft)
17.10.2022 07:24 13,8 C 12,8 C 90 % 1020,7 hPa 0,0 l/m 11,2 km/h (2 Bft) S 179 0 min 0,0 UV-I 0 W/m 12,2 C 11,2 C 20,9 km/h (4 Bft)
17.10.2022 07:27 13,8 C 12,8 C 90 % 1020,7 hPa 0,0 l/m 10,9 km/h (2 Bft) SO 144 0 min 0,0 UV-I 0 W/m 12,2 C 11,4 C 17,7 km/h (3 Bft)
17.10.2022 07:30 13,8 C 12,8 C 90 % 1020,7 hPa 0,0 l/m 9,5 km/h (2 Bft) S 184 0 min 0,0 UV-I 0 W/m 12,2 C 12,0 C 17,7 km/h (3 Bft)
17.10.2022 07:33 13,8 C 12,8 C 90 % 1020,6 hPa 0,0 l/m 8,8 km/h (2 Bft) S 176 0 min 0,0 UV-I 0 W/m 12,2 C 12,4 C 12,9 km/h (3 Bft)
17.10.2022 07:36 13,8 C 12,8 C 90 % 1020,6 hPa 0,0 l/m 9,2 km/h (2 Bft) S 176 0 min 0,0 UV-I 0 W/m 12,2 C 12,2 C 14,5 km/h (3 Bft)
17.10.2022 07:39 13,7 C 12,8 C 90 % 1020,6 hPa 0,0 l/m 8,5 km/h (2 Bft) S-SO 152 0 min 0,0 UV-I 0 W/m 12,1 C 12,5 C 14,5 km/h (3 Bft)
17.10.2022 07:42 13,7 C 12,8 C 90 % 1020,6 hPa 0,0 l/m 11,6 km/h (2 Bft) S-SO 155 0 min 0,0 UV-I 0 W/m 12,1 C 10,9 C 20,9 km/h (4 Bft)
17.10.2022 07:45 13,7 C 12,8 C 90 % 1020,6 hPa 0,0 l/m 10,6 km/h (2 Bft) S-SO 155 0 min 0,0 UV-I 0 W/m 12,1 C 11,4 C 16,1 km/h (3 Bft)
17.10.2022 07:48 13,7 C 12,8 C 90 % 1020,5 hPa 0,0 l/m 9,7 km/h (2 Bft) SO 138 0 min 0,0 UV-I 0 W/m 12,1 C 11,8 C 17,7 km/h (3 Bft)
17.10.2022 07:51 13,6 C 12,8 C 90 % 1020,5 hPa 0,0 l/m 9,5 km/h (2 Bft) SO 136 0 min 0,0 UV-I 0 W/m 12,0 C 11,8 C 16,1 km/h (3 Bft)
17.10.2022 07:54 13,6 C 12,8 C 90 % 1020,5 hPa 0,0 l/m 11,3 km/h (2 Bft) SO 140 0 min 0,0 UV-I 0 W/m 12,0 C 11,0 C 17,7 km/h (3 Bft)
17.10.2022 07:57 13,7 C 12,8 C 90 % 1020,6 hPa 0,0 l/m 12,5 km/h (3 Bft) SO 138 0 min 0,0 UV-I 0 W/m 12,1 C 10,6 C 17,7 km/h (3 Bft)
17.10.2022 08:00 13,7 C 12,8 C 90 % 1020,7 hPa 0,0 l/m 11,2 km/h (2 Bft) SO 142 0 min 0,0 UV-I 0 W/m 12,1 C 11,1 C 20,9 km/h (4 Bft)
17.10.2022 08:03 13,7 C 12,8 C 90 % 1020,8 hPa 0,0 l/m 14,3 km/h (3 Bft) S-SO 151 0 min 0,0 UV-I 0 W/m 12,1 C 9,9 C 22,5 km/h (4 Bft)
17.10.2022 08:06 13,7 C 12,8 C 90 % 1020,7 hPa 0,0 l/m 13,0 km/h (3 Bft) S-SO 164 0 min 0,0 UV-I 4 W/m 12,1 C 10,4 C 25,7 km/h (4 Bft)
17.10.2022 08:09 13,6 C 12,8 C 90 % 1020,9 hPa 0,0 l/m 11,8 km/h (2 Bft) S-SO 160 0 min 0,0 UV-I 6 W/m 12,0 C 10,7 C 19,3 km/h (3 Bft)
17.10.2022 08:12 13,6 C 12,8 C 90 % 1021,2 hPa 0,0 l/m 10,3 km/h (2 Bft) SO 139 0 min 0,0 UV-I 8 W/m 12,0 C 11,4 C 14,5 km/h (3 Bft)
17.10.2022 08:15 13,6 C 12,8 C 90 % 1021,1 hPa 0,0 l/m 8,6 km/h (2 Bft) S-SW 194 0 min 0,0 UV-I 10 W/m 12,0 C 12,3 C 19,3 km/h (3 Bft)
17.10.2022 08:18 13,5 C 12,8 C 90 % 1021,2 hPa 0,0 l/m 8,0 km/h (2 Bft) SO 146 0 min 0,0 UV-I 12 W/m 11,9 C 12,5 C 14,5 km/h (3 Bft)
17.10.2022 08:21 13,5 C 12,8 C 90 % 1021,1 hPa 0,0 l/m 10,4 km/h (2 Bft) S-SO 148 0 min 0,0 UV-I 14 W/m 11,9 C 11,3 C 16,1 km/h (3 Bft)
17.10.2022 08:24 13,4 C 12,8 C 90 % 1021,0 hPa 0,0 l/m 7,0 km/h (2 Bft) S-SO 161 0 min 0,0 UV-I 18 W/m 11,8 C 13,0 C 12,9 km/h (3 Bft)
17.10.2022 08:27 13,4 C 12,8 C 90 % 1021,0 hPa 0,0 l/m 10,3 km/h (2 Bft) SO 144 0 min 0,0 UV-I 22 W/m 11,8 C 11,2 C 14,5 km/h (3 Bft)
17.10.2022 08:30 13,4 C 12,8 C 90 % 1021,0 hPa 0,0 l/m 10,1 km/h (2 Bft) SO 146 0 min 0,0 UV-I 26 W/m 11,8 C 11,3 C 16,1 km/h (3 Bft)
17.10.2022 08:33 13,4 C 12,8 C 90 % 1021,0 hPa 0,0 l/m 9,7 km/h (2 Bft) S-SO 159 0 min 0,0 UV-I 29 W/m 11,8 C 11,5 C 14,5 km/h (3 Bft)
17.10.2022 08:36 13,4 C 12,8 C 90 % 1021,1 hPa 0,0 l/m 11,1 km/h (2 Bft) S-SO 149 0 min 0,0 UV-I 32 W/m 11,8 C 10,8 C 16,1 km/h (3 Bft)
17.10.2022 08:39 13,4 C 12,8 C 90 % 1021,2 hPa 0,0 l/m 12,2 km/h (2 Bft) SO 134 0 min 0,0 UV-I 33 W/m 11,8 C 10,3 C 17,7 km/h (3 Bft)
17.10.2022 08:42 13,6 C 12,8 C 90 % 1021,3 hPa 0,0 l/m 10,8 km/h (2 Bft) SO 142 0 min 0,0 UV-I 36 W/m 12,0 C 11,2 C 17,7 km/h (3 Bft)
17.10.2022 08:45 13,6 C 13,3 C 90 % 1021,3 hPa 0,0 l/m 11,0 km/h (2 Bft) S-SO 148 0 min 0,0 UV-I 37 W/m 12,0 C 11,1 C 17,7 km/h (3 Bft)
17.10.2022 08:48 13,6 C 13,3 C 90 % 1021,3 hPa 0,0 l/m 9,5 km/h (2 Bft) SO 137 0 min 0,0 UV-I 39 W/m 12,0 C 11,8 C 17,7 km/h (3 Bft)
17.10.2022 08:51 13,7 C 13,3 C 91 % 1021,3 hPa 0,0 l/m 10,3 km/h (2 Bft) SO 144 0 min 0,0 UV-I 40 W/m 12,3 C 11,5 C 16,1 km/h (3 Bft)
17.10.2022 08:54 13,8 C 13,3 C 90 % 1021,2 hPa 0,0 l/m 10,5 km/h (2 Bft) SO 129 0 min 0,0 UV-I 40 W/m 12,2 C 11,6 C 16,1 km/h (3 Bft)
17.10.2022 08:57 13,8 C 13,3 C 90 % 1021,3 hPa 0,0 l/m 11,4 km/h (2 Bft) SO 143 0 min 0,0 UV-I 43 W/m 12,2 C 11,1 C 17,7 km/h (3 Bft)
17.10.2022 09:00 13,9 C 13,3 C 90 % 1021,4 hPa 0,0 l/m 11,9 km/h (2 Bft) SO 135 0 min 0,0 UV-I 43 W/m 12,3 C 11,0 C 19,3 km/h (3 Bft)
17.10.2022 09:03 13,9 C 13,3 C 90 % 1021,4 hPa 0,0 l/m 12,4 km/h (3 Bft) SO 143 0 min 0,0 UV-I 45 W/m 12,3 C 10,8 C 17,7 km/h (3 Bft)
17.10.2022 09:07 13,9 C 13,3 C 90 % 1021,4 hPa 0,0 l/m 11,7 km/h (2 Bft) SO 144 0 min 0,0 UV-I 47 W/m 12,3 C 11,1 C 19,3 km/h (3 Bft)
17.10.2022 09:09 13,9 C 13,3 C 90 % 1021,4 hPa 0,0 l/m 13,5 km/h (3 Bft) S-SO 151 0 min 0,0 UV-I 49 W/m 12,3 C 10,4 C 24,1 km/h (4 Bft)
17.10.2022 09:12 13,9 C 13,3 C 90 % 1021,5 hPa 0,0 l/m 11,9 km/h (2 Bft) SO 146 0 min 0,0 UV-I 52 W/m 12,3 C 11,0 C 16,1 km/h (3 Bft)
17.10.2022 09:15 14,0 C 13,3 C 90 % 1021,5 hPa 0,0 l/m 10,9 km/h (2 Bft) SO 133 0 min 0,0 UV-I 53 W/m 12,4 C 11,6 C 16,1 km/h (3 Bft)
17.10.2022 09:18 14,1 C 13,3 C 90 % 1021,5 hPa 0,0 l/m 11,7 km/h (2 Bft) S-SO 157 0 min 0,0 UV-I 55 W/m 12,5 C 11,4 C 16,1 km/h (3 Bft)
17.10.2022 09:21 14,1 C 13,9 C 90 % 1021,5 hPa 0,0 l/m 10,4 km/h (2 Bft) SO 128 0 min 0,0 UV-I 59 W/m 12,5 C 11,9 C 19,3 km/h (3 Bft)
17.10.2022 09:24 14,2 C 13,9 C 90 % 1021,5 hPa 0,0 l/m 13,3 km/h (3 Bft) S-SO 148 0 min 0,0 UV-I 62 W/m 12,6 C 10,8 C 20,9 km/h (4 Bft)
17.10.2022 09:27 14,2 C 13,9 C 90 % 1021,5 hPa 0,0 l/m 13,2 km/h (3 Bft) S-SO 154 0 min 0,0 UV-I 64 W/m 12,6 C 10,9 C 19,3 km/h (3 Bft)
17.10.2022 09:30 14,2 C 13,9 C 90 % 1021,5 hPa 0,0 l/m 12,5 km/h (3 Bft) SO 145 0 min 0,1 UV-I 68 W/m 12,6 C 11,1 C 16,1 km/h (3 Bft)
17.10.2022 09:33 14,3 C 13,9 C 90 % 1021,5 hPa 0,0 l/m 11,6 km/h (2 Bft) SO 136 0 min 0,5 UV-I 73 W/m 12,7 C 11,6 C 17,7 km/h (3 Bft)
17.10.2022 09:36 14,3 C 13,9 C 90 % 1021,6 hPa 0,0 l/m 11,5 km/h (2 Bft) S-SO 150 0 min 0,5 UV-I 74 W/m 12,7 C 11,7 C 17,7 km/h (3 Bft)
17.10.2022 09:39 14,3 C 13,9 C 90 % 1021,6 hPa 0,0 l/m 11,6 km/h (2 Bft) SO 132 0 min 0,5 UV-I 78 W/m 12,7 C 11,6 C 17,7 km/h (3 Bft)
17.10.2022 09:42 14,4 C 14,4 C 90 % 1021,8 hPa 0,0 l/m 12,0 km/h (2 Bft) SO 135 0 min 0,5 UV-I 85 W/m 12,8 C 11,6 C 19,3 km/h (3 Bft)
17.10.2022 09:45 14,4 C 14,4 C 90 % 1021,7 hPa 0,0 l/m 12,0 km/h (2 Bft) S-SO 151 0 min 0,6 UV-I 94 W/m 12,8 C 11,6 C 20,9 km/h (4 Bft)
17.10.2022 09:48 14,4 C 14,4 C 90 % 1021,8 hPa 0,0 l/m 11,7 km/h (2 Bft) SO 130 0 min 0,6 UV-I 94 W/m 12,8 C 11,7 C 20,9 km/h (4 Bft)
17.10.2022 09:51 14,5 C 14,4 C 90 % 1021,8 hPa 0,0 l/m 12,4 km/h (3 Bft) S-SO 151 0 min 0,6 UV-I 99 W/m 12,9 C 11,5 C 17,7 km/h (3 Bft)
17.10.2022 09:54 14,6 C 14,4 C 90 % 1021,8 hPa 0,0 l/m 12,6 km/h (3 Bft) S-SO 168 0 min 0,6 UV-I 110 W/m 13,0 C 11,6 C 22,5 km/h (4 Bft)
17.10.2022 09:57 14,8 C 15,0 C 90 % 1022,0 hPa 0,0 l/m 15,3 km/h (3 Bft) S-SO 147 0 min 0,7 UV-I 113 W/m 13,2 C 10,9 C 22,5 km/h (4 Bft)
17.10.2022 10:00 14,9 C 15,0 C 89 % 1022,0 hPa 0,0 l/m 17,7 km/h (3 Bft) S 169 0 min 0,7 UV-I 112 W/m 13,1 C 10,2 C 29,0 km/h (5 Bft)
17.10.2022 10:03 15,0 C 15,0 C 89 % 1021,9 hPa 0,0 l/m 12,3 km/h (3 Bft) S-SO 148 0 min 0,7 UV-I 120 W/m 13,2 C 12,2 C 17,7 km/h (3 Bft)
17.10.2022 10:06 15,1 C 15,0 C 88 % 1021,9 hPa 0,0 l/m 16,6 km/h (3 Bft) S-SO 158 0 min 0,7 UV-I 118 W/m 13,1 C 10,8 C 29,0 km/h (5 Bft)
17.10.2022 10:09 15,2 C 15,0 C 88 % 1022,0 hPa 0,0 l/m 15,6 km/h (3 Bft) SO 132 0 min 0,7 UV-I 115 W/m 13,2 C 11,2 C 24,1 km/h (4 Bft)
17.10.2022 10:12 15,2 C 15,0 C 88 % 1021,9 hPa 0,0 l/m 17,1 km/h (3 Bft) SO 144 0 min 0,8 UV-I 113 W/m 13,2 C 10,8 C 25,7 km/h (4 Bft)
17.10.2022 10:15 15,3 C 15,0 C 88 % 1022,1 hPa 0,0 l/m 15,2 km/h (3 Bft) SO 134 0 min 0,8 UV-I 125 W/m 13,3 C 11,5 C 24,1 km/h (4 Bft)
17.10.2022 10:18 15,3 C 15,0 C 88 % 1022,0 hPa 0,0 l/m 15,0 km/h (3 Bft) S-SO 157 0 min 0,8 UV-I 118 W/m 13,3 C 11,6 C 25,7 km/h (4 Bft)
17.10.2022 10:21 15,3 C 15,0 C 88 % 1022,0 hPa 0,0 l/m 14,1 km/h (3 Bft) S 186 0 min 0,8 UV-I 120 W/m 13,3 C 11,9 C 22,5 km/h (4 Bft)
17.10.2022 10:24 15,3 C 15,0 C 87 % 1022,0 hPa 0,0 l/m 16,2 km/h (3 Bft) S-SO 154 0 min 0,8 UV-I 118 W/m 13,1 C 11,2 C 29,0 km/h (5 Bft)
17.10.2022 10:27 15,5 C 15,6 C 87 % 1022,0 hPa 0,0 l/m 16,1 km/h (3 Bft) S-SO 148 0 min 0,9 UV-I 109 W/m 13,3 C 11,5 C 29,0 km/h (5 Bft)
17.10.2022 10:30 15,7 C 15,6 C 87 % 1022,0 hPa 0,0 l/m 14,1 km/h (3 Bft) S-SO 147 0 min 0,9 UV-I 110 W/m 13,5 C 12,3 C 22,5 km/h (4 Bft)
17.10.2022 10:33 15,7 C 16,1 C 86 % 1022,3 hPa 0,0 l/m 13,7 km/h (3 Bft) SO 126 0 min 1,0 UV-I 124 W/m 13,4 C 12,5 C 19,3 km/h (3 Bft)
17.10.2022 10:36 15,9 C 16,1 C 86 % 1022,1 hPa 0,0 l/m 15,6 km/h (3 Bft) S-SO 161 0 min 1,0 UV-I 135 W/m 13,6 C 12,1 C 24,1 km/h (4 Bft)
17.10.2022 10:39 15,9 C 16,1 C 86 % 1022,1 hPa 0,0 l/m 16,2 km/h (3 Bft) S-SO 157 0 min 1,0 UV-I 107 W/m 13,6 C 11,9 C 29,0 km/h (5 Bft)
17.10.2022 10:42 15,8 C 15,6 C 86 % 1022,1 hPa 0,0 l/m 18,8 km/h (3 Bft) S-SO 166 0 min 1,1 UV-I 174 W/m 13,5 C 11,1 C 27,4 km/h (4 Bft)
17.10.2022 10:45 15,9 C 16,7 C 86 % 1022,1 hPa 0,0 l/m 13,0 km/h (3 Bft) S 172 0 min 1,3 UV-I 275 W/m 13,6 C 12,9 C 19,3 km/h (3 Bft)
17.10.2022 10:48 16,1 C 17,2 C 86 % 1022,1 hPa 0,0 l/m 13,7 km/h (3 Bft) S 183 0 min 1,3 UV-I 291 W/m 13,8 C 12,9 C 22,5 km/h (4 Bft)
17.10.2022 10:51 16,3 C 18,3 C 85 % 1022,2 hPa 0,0 l/m 10,7 km/h (2 Bft) S-SO 162 0 min 1,3 UV-I 297 W/m 13,8 C 14,3 C 19,3 km/h (3 Bft)
17.10.2022 10:54 16,6 C 18,9 C 85 % 1022,2 hPa 0,0 l/m 9,3 km/h (2 Bft) S 178 0 min 1,3 UV-I 297 W/m 14,1 C 15,2 C 17,7 km/h (3 Bft)
17.10.2022 10:57 16,6 C 18,3 C 84 % 1022,3 hPa 0,0 l/m 11,2 km/h (2 Bft) S 169 0 min 1,2 UV-I 231 W/m 13,9 C 14,4 C 19,3 km/h (3 Bft)
17.10.2022 11:00 16,4 C 17,2 C 84 % 1022,3 hPa 0,0 l/m 12,9 km/h (3 Bft) S 187 0 min 0,9 UV-I 100 W/m 13,7 C 13,6 C 24,1 km/h (4 Bft)
17.10.2022 11:03 16,3 C 16,7 C 84 % 1022,4 hPa 0,0 l/m 11,3 km/h (2 Bft) S 181 0 min 0,9 UV-I 107 W/m 13,6 C 14,0 C 20,9 km/h (4 Bft)
17.10.2022 11:04 16,3 C 16,7 C 84 % 1022,5 hPa 0,0 l/m 16,1 km/h (3 Bft) S-SW 202 0 min 1,0 UV-I 128 W/m 13,6 C 12,4 C 19,3 km/h (3 Bft)
17.10.2022 11:05 16,3 C 16,7 C 84 % 1022,5 hPa 0,0 l/m 16,1 km/h (3 Bft) S-SW 202 0 min 1,0 UV-I 137 W/m 13,6 C 12,4 C 17,7 km/h (3 Bft)
17.10.2022 11:06 16,2 C 16,7 C 84 % 1022,6 hPa 0,0 l/m 14,5 km/h (3 Bft) S 180 0 min 1,0 UV-I 139 W/m 13,5 C 12,8 C 22,5 km/h (4 Bft)
17.10.2022 11:07 16,2 C 16,7 C 84 % 1022,6 hPa 0,0 l/m 16,1 km/h (3 Bft) S 180 0 min 1,0 UV-I 146 W/m 13,5 C 12,3 C 24,1 km/h (4 Bft)
17.10.2022 11:12 16,2 C 17,2 C 85 % 1022,7 hPa 0,0 l/m 14,6 km/h (3 Bft) S 177 0 min 1,3 UV-I 231 W/m 13,7 C 12,8 C 24,1 km/h (4 Bft)
17.10.2022 11:15 16,2 C 16,7 C 84 % 1022,6 hPa 0,0 l/m 15,5 km/h (3 Bft) SW 219 0 min 1,2 UV-I 176 W/m 13,5 C 12,5 C 25,7 km/h (4 Bft)
17.10.2022 11:18 16,3 C 18,3 C 85 % 1022,6 hPa 0,0 l/m 13,7 km/h (3 Bft) SO 139 0 min 1,3 UV-I 185 W/m 13,8 C 13,2 C 22,5 km/h (4 Bft)
17.10.2022 11:21 16,4 C 18,3 C 84 % 1022,7 hPa 0,0 l/m 17,1 km/h (3 Bft) S-SW 194 0 min 1,4 UV-I 281 W/m 13,7 C 12,3 C 27,4 km/h (4 Bft)
17.10.2022 11:24 16,6 C 18,9 C 85 % 1022,6 hPa 0,0 l/m 15,4 km/h (3 Bft) SW 215 0 min 1,6 UV-I 300 W/m 14,1 C 13,0 C 25,7 km/h (4 Bft)
17.10.2022 11:27 16,7 C 20,0 C 84 % 1022,8 hPa 0,0 l/m 15,0 km/h (3 Bft) S 190 3 min 1,7 UV-I 344 W/m 14,0 C 13,3 C 25,7 km/h (4 Bft)
17.10.2022 11:30 16,7 C 20,6 C 84 % 1022,9 hPa 0,0 l/m 14,3 km/h (3 Bft) S-SW 205 3 min 1,7 UV-I 374 W/m 14,0 C 13,5 C 24,1 km/h (4 Bft)
17.10.2022 11:33 16,7 C 20,6 C 84 % 1022,8 hPa 0,0 l/m 18,1 km/h (3 Bft) S-SW 207 3 min 1,8 UV-I 399 W/m 14,0 C 12,4 C 32,2 km/h (5 Bft)
17.10.2022 11:36 16,8 C 20,6 C 84 % 1022,9 hPa 0,0 l/m 14,5 km/h (3 Bft) S-SW 197 3 min 1,8 UV-I 446 W/m 14,1 C 13,5 C 22,5 km/h (4 Bft)
17.10.2022 11:39 16,9 C 20,0 C 84 % 1022,9 hPa 0,0 l/m 16,2 km/h (3 Bft) S-SW 196 3 min 1,8 UV-I 415 W/m 14,2 C 13,2 C 24,1 km/h (4 Bft)
17.10.2022 11:42 16,9 C 19,4 C 84 % 1022,8 hPa 0,0 l/m 15,0 km/h (3 Bft) S 186 0 min 1,7 UV-I 284 W/m 14,2 C 13,5 C 25,7 km/h (4 Bft)
17.10.2022 11:45 17,1 C 20,6 C 84 % 1022,9 hPa 0,0 l/m 14,2 km/h (3 Bft) S-SO 163 3 min 1,9 UV-I 392 W/m 14,4 C 14,0 C 27,4 km/h (4 Bft)
17.10.2022 11:48 17,0 C 20,6 C 84 % 1022,8 hPa 0,0 l/m 14,5 km/h (3 Bft) S 187 3 min 1,8 UV-I 344 W/m 14,3 C 13,8 C 22,5 km/h (4 Bft)
17.10.2022 11:51 17,0 C 19,4 C 84 % 1022,8 hPa 0,0 l/m 17,4 km/h (3 Bft) S-SW 194 3 min 1,7 UV-I 330 W/m 14,3 C 13,0 C 37,0 km/h (5 Bft)
17.10.2022 11:54 17,0 C 18,3 C 84 % 1023,0 hPa 0,0 l/m 14,2 km/h (3 Bft) S-SW 198 0 min 1,4 UV-I 185 W/m 14,3 C 13,9 C 22,5 km/h (4 Bft)
17.10.2022 11:57 16,7 C 17,8 C 84 % 1022,9 hPa 0,0 l/m 17,1 km/h (3 Bft) SW 215 0 min 1,3 UV-I 173 W/m 14,0 C 12,7 C 29,0 km/h (5 Bft)
17.10.2022 12:00 16,7 C 17,2 C 84 % 1022,8 hPa 0,0 l/m 14,6 km/h (3 Bft) SO 138 0 min 1,4 UV-I 188 W/m 14,0 C 13,4 C 22,5 km/h (4 Bft)
17.10.2022 12:03 16,7 C 17,8 C 85 % 1022,9 hPa 0,0 l/m 12,6 km/h (3 Bft) S-SW 200 0 min 1,5 UV-I 229 W/m 14,2 C 14,0 C 19,3 km/h (3 Bft)
17.10.2022 12:06 16,8 C 18,3 C 85 % 1022,9 hPa 0,0 l/m 15,9 km/h (3 Bft) SW 217 0 min 1,6 UV-I 253 W/m 14,3 C 13,1 C 27,4 km/h (4 Bft)
17.10.2022 12:09 16,9 C 18,3 C 85 % 1023,0 hPa 0,0 l/m 12,5 km/h (3 Bft) SW 215 0 min 1,6 UV-I 253 W/m 14,4 C 14,3 C 17,7 km/h (3 Bft)
17.10.2022 12:12 17,1 C 18,9 C 85 % 1023,1 hPa 0,0 l/m 12,6 km/h (3 Bft) S 171 0 min 1,6 UV-I 236 W/m 14,6 C 14,5 C 24,1 km/h (4 Bft)
17.10.2022 12:15 17,1 C 18,3 C 84 % 1023,1 hPa 0,0 l/m 15,7 km/h (3 Bft) S 186 0 min 1,7 UV-I 233 W/m 14,4 C 13,5 C 27,4 km/h (4 Bft)
17.10.2022 12:18 17,1 C 18,3 C 84 % 1023,1 hPa 0,0 l/m 14,8 km/h (3 Bft) S 178 0 min 1,3 UV-I 200 W/m 14,4 C 13,8 C 24,1 km/h (4 Bft)
17.10.2022 12:21 17,1 C 18,9 C 84 % 1023,1 hPa 0,0 l/m 15,2 km/h (3 Bft) S 171 0 min 1,6 UV-I 222 W/m 14,4 C 13,7 C 22,5 km/h (4 Bft)
17.10.2022 12:24 17,2 C 18,9 C 84 % 1023,1 hPa 0,0 l/m 12,8 km/h (3 Bft) S 178 3 min 1,6 UV-I 303 W/m 14,5 C 14,5 C 20,9 km/h (4 Bft)
17.10.2022 12:27 17,3 C 18,9 C 83 % 1023,2 hPa 0,0 l/m 15,2 km/h (3 Bft) S-SO 167 3 min 1,7 UV-I 344 W/m 14,4 C 13,9 C 22,5 km/h (4 Bft)
17.10.2022 12:30 17,2 C 18,3 C 83 % 1023,3 hPa 0,0 l/m 15,2 km/h (3 Bft) S-SO 157 0 min 1,3 UV-I 211 W/m 14,3 C 13,8 C 25,7 km/h (4 Bft)
17.10.2022 12:33 17,3 C 19,4 C 84 % 1023,2 hPa 0,0 l/m 10,6 km/h (2 Bft) S-SO 148 3 min 1,7 UV-I 313 W/m 14,6 C 15,4 C 16,1 km/h (3 Bft)
17.10.2022 12:36 17,4 C 19,4 C 83 % 1023,0 hPa 0,0 l/m 9,9 km/h (2 Bft) S-SO 159 0 min 1,6 UV-I 259 W/m 14,5 C 15,8 C 20,9 km/h (4 Bft)
17.10.2022 12:39 17,4 C 18,9 C 83 % 1023,0 hPa 0,0 l/m 9,4 km/h (2 Bft) SO 142 0 min 1,4 UV-I 200 W/m 14,5 C 16,0 C 17,7 km/h (3 Bft)
17.10.2022 12:42 17,4 C 18,9 C 83 % 1023,0 hPa 0,0 l/m 7,3 km/h (2 Bft) SO 139 0 min 1,4 UV-I 190 W/m 14,5 C 17,0 C 12,9 km/h (3 Bft)
17.10.2022 12:45 17,5 C 19,4 C 83 % 1022,9 hPa 0,0 l/m 5,5 km/h (1 Bft) S-SO 151 0 min 1,6 UV-I 249 W/m 14,6 C 17,5 C 11,3 km/h (2 Bft)
17.10.2022 12:48 17,6 C 19,4 C 84 % 1023,1 hPa 0,0 l/m 6,9 km/h (2 Bft) S 183 0 min 1,8 UV-I 285 W/m 14,9 C 17,4 C 11,3 km/h (2 Bft)
17.10.2022 12:51 17,8 C 20,0 C 84 % 1023,2 hPa 0,0 l/m 9,1 km/h (2 Bft) S 186 3 min 2,0 UV-I 315 W/m 15,1 C 16,6 C 14,5 km/h (3 Bft)
17.10.2022 12:54 17,9 C 20,6 C 83 % 1023,3 hPa 0,0 l/m 7,8 km/h (2 Bft) S-SW 213 0 min 1,9 UV-I 289 W/m 15,0 C 17,2 C 14,5 km/h (3 Bft)
17.10.2022 12:57 18,1 C 21,1 C 83 % 1023,2 hPa 0,0 l/m 8,3 km/h (2 Bft) S-SO 163 3 min 2,1 UV-I 335 W/m 15,2 C 17,2 C 12,9 km/h (3 Bft)
17.10.2022 13:00 18,2 C 21,7 C 82 % 1023,2 hPa 0,0 l/m 8,2 km/h (2 Bft) SW 223 0 min 1,9 UV-I 277 W/m 15,1 C 17,4 C 14,5 km/h (3 Bft)
17.10.2022 13:03 18,4 C 22,8 C 83 % 1023,2 hPa 0,0 l/m 10,6 km/h (2 Bft) S-SW 202 3 min 2,2 UV-I 391 W/m 15,5 C 16,7 C 17,7 km/h (3 Bft)
17.10.2022 13:06 18,5 C 22,8 C 81 % 1023,2 hPa 0,0 l/m 12,1 km/h (2 Bft) S 175 3 min 2,3 UV-I 417 W/m 15,2 C 16,3 C 19,3 km/h (3 Bft)
17.10.2022 13:09 18,5 C 21,7 C 80 % 1023,3 hPa 0,0 l/m 16,2 km/h (3 Bft) SO 138 3 min 2,1 UV-I 351 W/m 15,0 C 15,1 C 25,7 km/h (4 Bft)
17.10.2022 13:12 18,4 C 21,1 C 81 % 1023,1 hPa 0,0 l/m 14,5 km/h (3 Bft) S-SO 159 3 min 1,9 UV-I 304 W/m 15,1 C 15,4 C 29,0 km/h (5 Bft)
17.10.2022 13:15 18,7 C 22,2 C 81 % 1023,1 hPa 0,0 l/m 10,2 km/h (2 Bft) SO 146 3 min 2,2 UV-I 389 W/m 15,4 C 17,1 C 17,7 km/h (3 Bft)
17.10.2022 13:18 18,7 C 21,1 C 80 % 1023,2 hPa 0,0 l/m 13,8 km/h (3 Bft) S-SO 161 3 min 2,2 UV-I 372 W/m 15,2 C 16,0 C 22,5 km/h (4 Bft)
17.10.2022 13:21 18,8 C 21,7 C 81 % 1023,1 hPa 0,0 l/m 12,1 km/h (2 Bft) SO 141 3 min 2,1 UV-I 370 W/m 15,5 C 16,6 C 22,5 km/h (4 Bft)
17.10.2022 13:24 19,0 C 21,7 C 79 % 1023,2 hPa 0,0 l/m 12,9 km/h (3 Bft) S 191 3 min 2,1 UV-I 364 W/m 15,3 C 16,6 C 22,5 km/h (4 Bft)
17.10.2022 13:27 18,8 C 20,6 C 79 % 1023,3 hPa 0,0 l/m 16,7 km/h (3 Bft) S 182 3 min 1,9 UV-I 301 W/m 15,1 C 15,4 C 25,7 km/h (4 Bft)
17.10.2022 13:30 18,7 C 20,0 C 79 % 1023,3 hPa 0,0 l/m 16,7 km/h (3 Bft) S 183 0 min 1,8 UV-I 285 W/m 15,0 C 15,3 C 25,7 km/h (4 Bft)
17.10.2022 13:33 18,7 C 19,4 C 79 % 1023,3 hPa 0,0 l/m 13,5 km/h (3 Bft) S-SW 198 0 min 1,6 UV-I 235 W/m 15,0 C 16,1 C 24,1 km/h (4 Bft)
17.10.2022 13:36 18,7 C 19,4 C 79 % 1023,4 hPa 0,0 l/m 13,7 km/h (3 Bft) S-SW 194 0 min 1,5 UV-I 219 W/m 15,0 C 16,0 C 25,7 km/h (4 Bft)
17.10.2022 13:39 18,7 C 19,4 C 80 % 1023,6 hPa 0,0 l/m 12,8 km/h (3 Bft) SO 140 0 min 1,4 UV-I 211 W/m 15,2 C 16,3 C 20,9 km/h (4 Bft)
17.10.2022 13:42 18,7 C 18,9 C 79 % 1023,4 hPa 0,0 l/m 13,7 km/h (3 Bft) S-SW 192 0 min 1,3 UV-I 189 W/m 15,0 C 16,0 C 22,5 km/h (4 Bft)
17.10.2022 13:45 18,6 C 18,9 C 80 % 1023,5 hPa 0,0 l/m 17,3 km/h (3 Bft) S-SW 197 0 min 1,2 UV-I 161 W/m 15,1 C 15,0 C 24,1 km/h (4 Bft)
17.10.2022 13:48 18,5 C 18,3 C 79 % 1023,6 hPa 0,0 l/m 16,8 km/h (3 Bft) S-SO 161 0 min 1,1 UV-I 140 W/m 14,8 C 15,0 C 37,0 km/h (5 Bft)
17.10.2022 13:51 18,5 C 18,9 C 80 % 1023,5 hPa 0,0 l/m 14,7 km/h (3 Bft) S 186 0 min 1,0 UV-I 164 W/m 15,0 C 15,5 C 27,4 km/h (4 Bft)
17.10.2022 13:54 18,6 C 18,9 C 80 % 1023,5 hPa 0,0 l/m 11,7 km/h (2 Bft) S-SW 211 0 min 1,0 UV-I 185 W/m 15,1 C 16,5 C 24,1 km/h (4 Bft)
17.10.2022 13:57 18,6 C 19,4 C 80 % 1023,6 hPa 0,0 l/m 11,0 km/h (2 Bft) S-SW 213 0 min 1,1 UV-I 194 W/m 15,1 C 16,7 C 19,3 km/h (3 Bft)
17.10.2022 14:00 18,7 C 19,4 C 80 % 1023,7 hPa 0,0 l/m 10,2 km/h (2 Bft) S 179 0 min 1,2 UV-I 205 W/m 15,2 C 17,1 C 14,5 km/h (3 Bft)
17.10.2022 14:03 18,7 C 19,4 C 79 % 1023,7 hPa 0,0 l/m 15,0 km/h (3 Bft) S-SW 193 0 min 1,3 UV-I 215 W/m 15,0 C 15,7 C 27,4 km/h (4 Bft)
17.10.2022 14:06 18,7 C 20,0 C 80 % 1023,6 hPa 0,0 l/m 15,2 km/h (3 Bft) S-SO 149 0 min 1,3 UV-I 232 W/m 15,2 C 15,6 C 27,4 km/h (4 Bft)
17.10.2022 14:09 18,8 C 21,1 C 79 % 1023,6 hPa 0,0 l/m 14,5 km/h (3 Bft) S 173 3 min 1,9 UV-I 353 W/m 15,1 C 15,9 C 24,1 km/h (4 Bft)
17.10.2022 14:12 19,1 C 22,8 C 79 % 1023,6 hPa 0,0 l/m 16,6 km/h (3 Bft) S-SW 194 3 min 2,2 UV-I 479 W/m 15,4 C 15,8 C 30,6 km/h (5 Bft)
17.10.2022 14:15 19,1 C 21,1 C 78 % 1023,5 hPa 0,0 l/m 17,8 km/h (3 Bft) S 184 0 min 1,6 UV-I 259 W/m 15,2 C 15,5 C 25,7 km/h (4 Bft)
17.10.2022 14:18 18,9 C 20,0 C 78 % 1023,6 hPa 0,0 l/m 15,6 km/h (3 Bft) S-SW 201 0 min 1,4 UV-I 204 W/m 15,0 C 15,8 C 27,4 km/h (4 Bft)
17.10.2022 14:21 18,8 C 19,4 C 78 % 1023,6 hPa 0,0 l/m 16,0 km/h (3 Bft) S-SO 162 0 min 1,3 UV-I 183 W/m 14,9 C 15,5 C 25,7 km/h (4 Bft)
17.10.2022 14:24 18,7 C 18,9 C 79 % 1023,8 hPa 0,0 l/m 12,5 km/h (3 Bft) S-SW 208 0 min 1,2 UV-I 143 W/m 15,0 C 16,4 C 20,9 km/h (4 Bft)
17.10.2022 14:27 18,6 C 18,9 C 79 % 1023,8 hPa 0,0 l/m 13,9 km/h (3 Bft) S 171 0 min 1,1 UV-I 150 W/m 14,9 C 15,9 C 22,5 km/h (4 Bft)
17.10.2022 14:30 18,4 C 18,9 C 80 % 1023,6 hPa 0,0 l/m 14,8 km/h (3 Bft) S-SO 167 0 min 1,1 UV-I 152 W/m 14,9 C 15,4 C 25,7 km/h (4 Bft)
17.10.2022 14:33 18,5 C 18,9 C 80 % 1023,8 hPa 0,0 l/m 12,3 km/h (3 Bft) S-SO 165 0 min 1,0 UV-I 159 W/m 15,0 C 16,2 C 19,3 km/h (3 Bft)
17.10.2022 14:36 18,5 C 18,9 C 80 % 1023,8 hPa 0,0 l/m 11,0 km/h (2 Bft) SO 144 0 min 1,0 UV-I 162 W/m 15,0 C 16,6 C 16,1 km/h (3 Bft)
17.10.2022 14:39 18,4 C 18,9 C 80 % 1023,8 hPa 0,0 l/m 12,9 km/h (3 Bft) S 175 0 min 1,1 UV-I 168 W/m 14,9 C 15,9 C 22,5 km/h (4 Bft)
17.10.2022 14:42 18,5 C 18,3 C 79 % 1023,8 hPa 0,0 l/m 16,0 km/h (3 Bft) S 179 0 min 0,9 UV-I 132 W/m 14,8 C 15,2 C 30,6 km/h (5 Bft)
17.10.2022 14:45 18,4 C 18,3 C 79 % 1023,9 hPa 0,0 l/m 12,2 km/h (2 Bft) S-SO 153 0 min 0,7 UV-I 105 W/m 14,7 C 16,1 C 19,3 km/h (3 Bft)
17.10.2022 14:48 18,4 C 18,3 C 79 % 1023,8 hPa 0,0 l/m 9,3 km/h (2 Bft) S 178 0 min 0,7 UV-I 109 W/m 14,7 C 17,1 C 16,1 km/h (3 Bft)
17.10.2022 14:51 18,3 C 18,3 C 78 % 1023,9 hPa 0,0 l/m 16,8 km/h (3 Bft) S-SW 195 0 min 0,9 UV-I 148 W/m 14,4 C 14,7 C 24,1 km/h (4 Bft)
17.10.2022 14:54 18,3 C 18,3 C 78 % 1023,9 hPa 0,0 l/m 23,1 km/h (4 Bft) S-SO 166 0 min 1,0 UV-I 165 W/m 14,4 C 13,4 C 35,4 km/h (5 Bft)
17.10.2022 14:57 18,3 C 18,3 C 78 % 1023,9 hPa 0,0 l/m 22,0 km/h (4 Bft) S-SW 206 0 min 1,1 UV-I 196 W/m 14,4 C 13,6 C 30,6 km/h (5 Bft)
17.10.2022 15:00 18,3 C 18,3 C 78 % 1024,1 hPa 0,0 l/m 19,1 km/h (3 Bft) SW 234 0 min 1,0 UV-I 164 W/m 14,4 C 14,2 C 29,0 km/h (5 Bft)
17.10.2022 15:03 18,3 C 18,3 C 78 % 1024,0 hPa 0,0 l/m 16,9 km/h (3 Bft) S-SW 195 0 min 0,8 UV-I 137 W/m 14,4 C 14,7 C 29,0 km/h (5 Bft)
17.10.2022 15:06 18,3 C 18,3 C 78 % 1024,0 hPa 0,0 l/m 18,5 km/h (3 Bft) S-SW 208 0 min 0,6 UV-I 106 W/m 14,4 C 14,3 C 30,6 km/h (5 Bft)
17.10.2022 15:09 18,2 C 17,8 C 78 % 1024,1 hPa 0,0 l/m 16,6 km/h (3 Bft) S 186 0 min 0,7 UV-I 101 W/m 14,3 C 14,7 C 25,7 km/h (4 Bft)
17.10.2022 15:12 18,1 C 17,8 C 79 % 1024,2 hPa 0,0 l/m 14,5 km/h (3 Bft) S 180 0 min 0,5 UV-I 76 W/m 14,4 C 15,1 C 29,0 km/h (5 Bft)
17.10.2022 15:15 18,1 C 17,8 C 79 % 1024,1 hPa 0,0 l/m 15,2 km/h (3 Bft) S-SW 198 0 min 0,1 UV-I 66 W/m 14,4 C 14,9 C 24,1 km/h (4 Bft)
17.10.2022 15:18 18,0 C 17,8 C 79 % 1024,1 hPa 0,0 l/m 18,6 km/h (3 Bft) S 181 0 min 0,5 UV-I 77 W/m 14,3 C 13,9 C 30,6 km/h (5 Bft)
17.10.2022 15:21 17,9 C 17,8 C 79 % 1024,1 hPa 0,0 l/m 14,3 km/h (3 Bft) S 173 0 min 0,4 UV-I 80 W/m 14,2 C 14,9 C 22,5 km/h (4 Bft)
17.10.2022 15:24 17,9 C 17,2 C 79 % 1024,2 hPa 0,0 l/m 14,7 km/h (3 Bft) S 186 0 min 0,0 UV-I 63 W/m 14,2 C 14,8 C 24,1 km/h (4 Bft)
17.10.2022 15:27 17,8 C 17,2 C 80 % 1024,2 hPa 0,0 l/m 13,1 km/h (3 Bft) S-SW 207 0 min 0,0 UV-I 56 W/m 14,3 C 15,1 C 22,5 km/h (4 Bft)
17.10.2022 15:30 17,8 C 17,2 C 80 % 1024,2 hPa 0,0 l/m 11,7 km/h (2 Bft) S 178 0 min 0,1 UV-I 63 W/m 14,3 C 15,6 C 17,7 km/h (3 Bft)
17.10.2022 15:33 17,8 C 17,2 C 80 % 1024,2 hPa 0,0 l/m 13,7 km/h (3 Bft) S 175 0 min 0,0 UV-I 70 W/m 14,3 C 15,0 C 20,9 km/h (4 Bft)
17.10.2022 15:36 17,8 C 17,2 C 81 % 1024,3 hPa 0,0 l/m 10,7 km/h (2 Bft) SW 215 0 min 0,0 UV-I 63 W/m 14,5 C 15,9 C 19,3 km/h (3 Bft)
17.10.2022 15:39 17,7 C 17,2 C 80 % 1024,3 hPa 0,0 l/m 14,6 km/h (3 Bft) S-SW 200 0 min 0,0 UV-I 72 W/m 14,2 C 14,6 C 25,7 km/h (4 Bft)
17.10.2022 15:42 17,7 C 17,2 C 81 % 1024,2 hPa 0,0 l/m 10,6 km/h (2 Bft) S 190 0 min 0,4 UV-I 77 W/m 14,4 C 15,9 C 16,1 km/h (3 Bft)
17.10.2022 15:45 17,7 C 17,8 C 80 % 1024,2 hPa 0,0 l/m 15,5 km/h (3 Bft) SW 215 0 min 0,4 UV-I 99 W/m 14,2 C 14,3 C 22,5 km/h (4 Bft)
17.10.2022 15:48 17,8 C 18,3 C 81 % 1024,3 hPa 0,0 l/m 9,3 km/h (2 Bft) S-SO 167 0 min 0,8 UV-I 144 W/m 14,5 C 16,5 C 16,1 km/h (3 Bft)
17.10.2022 15:51 17,9 C 18,9 C 81 % 1024,3 hPa 0,0 l/m 12,6 km/h (3 Bft) S 191 0 min 0,9 UV-I 166 W/m 14,6 C 15,4 C 19,3 km/h (3 Bft)
17.10.2022 15:54 18,1 C 20,6 C 80 % 1024,2 hPa 0,0 l/m 12,8 km/h (3 Bft) S-SW 195 3 min 1,4 UV-I 310 W/m 14,6 C 15,6 C 25,7 km/h (4 Bft)
17.10.2022 15:57 18,4 C 22,2 C 80 % 1024,2 hPa 0,0 l/m 9,4 km/h (2 Bft) SW 236 3 min 1,4 UV-I 303 W/m 14,9 C 17,1 C 20,9 km/h (4 Bft)
17.10.2022 16:00 18,5 C 22,8 C 79 % 1024,2 hPa 0,0 l/m 12,0 km/h (2 Bft) S 171 0 min 1,4 UV-I 300 W/m 14,8 C 16,3 C 17,7 km/h (3 Bft)
17.10.2022 16:03 18,5 C 21,1 C 79 % 1024,2 hPa 0,0 l/m 12,5 km/h (3 Bft) S-SW 202 0 min 1,1 UV-I 217 W/m 14,8 C 16,1 C 27,4 km/h (4 Bft)
17.10.2022 16:06 18,3 C 19,4 C 79 % 1024,3 hPa 0,0 l/m 14,0 km/h (3 Bft) S-SO 157 0 min 1,0 UV-I 114 W/m 14,6 C 15,5 C 22,5 km/h (4 Bft)
17.10.2022 16:09 18,2 C 18,3 C 79 % 1024,3 hPa 0,0 l/m 13,9 km/h (3 Bft) S 191 0 min 0,9 UV-I 121 W/m 14,5 C 15,4 C 22,5 km/h (4 Bft)
17.10.2022 16:12 18,1 C 18,3 C 79 % 1024,3 hPa 0,0 l/m 17,1 km/h (3 Bft) S 177 0 min 0,9 UV-I 127 W/m 14,4 C 14,4 C 27,4 km/h (4 Bft)
17.10.2022 16:15 18,1 C 18,3 C 80 % 1024,3 hPa 0,0 l/m 14,4 km/h (3 Bft) S 173 0 min 0,9 UV-I 146 W/m 14,6 C 15,1 C 25,7 km/h (4 Bft)
17.10.2022 16:18 18,1 C 18,3 C 80 % 1024,3 hPa 0,0 l/m 12,9 km/h (3 Bft) S 169 0 min 1,0 UV-I 161 W/m 14,6 C 15,6 C 22,5 km/h (4 Bft)
17.10.2022 16:21 18,1 C 18,3 C 80 % 1024,3 hPa 0,0 l/m 17,1 km/h (3 Bft) S-SW 207 0 min 0,8 UV-I 128 W/m 14,6 C 14,4 C 25,7 km/h (4 Bft)
17.10.2022 16:24 18,1 C 17,8 C 80 % 1024,4 hPa 0,0 l/m 14,9 km/h (3 Bft) SW 219 0 min 0,6 UV-I 86 W/m 14,6 C 15,0 C 24,1 km/h (4 Bft)
17.10.2022 16:27 18,0 C 17,8 C 80 % 1024,4 hPa 0,0 l/m 14,6 km/h (3 Bft) S 184 0 min 0,5 UV-I 95 W/m 14,5 C 14,9 C 24,1 km/h (4 Bft)
17.10.2022 16:30 18,1 C 18,3 C 80 % 1024,4 hPa 0,0 l/m 13,3 km/h (3 Bft) S 171 0 min 0,7 UV-I 127 W/m 14,6 C 15,4 C 24,1 km/h (4 Bft)
17.10.2022 16:33 18,0 C 17,8 C 80 % 1024,3 hPa 0,0 l/m 12,0 km/h (2 Bft) SW 223 0 min 0,6 UV-I 92 W/m 14,5 C 15,7 C 22,5 km/h (4 Bft)
17.10.2022 16:36 18,0 C 17,8 C 79 % 1024,6 hPa 0,0 l/m 13,3 km/h (3 Bft) S-SW 208 0 min 0,6 UV-I 77 W/m 14,3 C 15,3 C 19,3 km/h (3 Bft)
17.10.2022 16:39 17,9 C 17,8 C 79 % 1024,4 hPa 0,0 l/m 14,0 km/h (3 Bft) S-SW 193 0 min 0,5 UV-I 80 W/m 14,2 C 15,0 C 24,1 km/h (4 Bft)
17.10.2022 16:42 17,9 C 17,8 C 79 % 1024,6 hPa 0,0 l/m 10,1 km/h (2 Bft) S 186 0 min 0,6 UV-I 98 W/m 14,2 C 16,3 C 17,7 km/h (3 Bft)
17.10.2022 16:45 18,0 C 17,8 C 79 % 1024,5 hPa 0,0 l/m 13,5 km/h (3 Bft) S 189 0 min 0,6 UV-I 96 W/m 14,3 C 15,3 C 20,9 km/h (4 Bft)
17.10.2022 16:48 18,0 C 17,8 C 79 % 1024,5 hPa 0,0 l/m 14,8 km/h (3 Bft) S 189 0 min 0,6 UV-I 95 W/m 14,3 C 14,9 C 24,1 km/h (4 Bft)
17.10.2022 16:51 17,9 C 17,8 C 79 % 1024,6 hPa 0,0 l/m 9,3 km/h (2 Bft) S-SW 192 0 min 0,5 UV-I 91 W/m 14,2 C 16,6 C 16,1 km/h (3 Bft)
17.10.2022 16:54 17,9 C 17,8 C 79 % 1024,6 hPa 0,0 l/m 12,2 km/h (2 Bft) SW 231 0 min 0,5 UV-I 84 W/m 14,2 C 15,5 C 20,9 km/h (4 Bft)
17.10.2022 16:57 17,9 C 17,8 C 79 % 1024,7 hPa 0,0 l/m 12,0 km/h (2 Bft) S 171 0 min 0,2 UV-I 66 W/m 14,2 C 15,6 C 17,7 km/h (3 Bft)
17.10.2022 17:00 17,9 C 17,2 C 79 % 1024,8 hPa 0,0 l/m 9,2 km/h (2 Bft) S 172 0 min 0,0 UV-I 57 W/m 14,2 C 16,6 C 12,9 km/h (3 Bft)
17.10.2022 17:03 17,9 C 17,2 C 79 % 1024,8 hPa 0,0 l/m 11,9 km/h (2 Bft) S-SW 194 0 min 0,0 UV-I 59 W/m 14,2 C 15,6 C 17,7 km/h (3 Bft)
17.10.2022 17:06 17,9 C 17,2 C 79 % 1024,6 hPa 0,0 l/m 8,6 km/h (2 Bft) S 180 0 min 0,0 UV-I 63 W/m 14,2 C 16,9 C 17,7 km/h (3 Bft)
17.10.2022 17:09 17,8 C 17,2 C 80 % 1024,7 hPa 0,0 l/m 9,6 km/h (2 Bft) S 177 0 min 0,0 UV-I 57 W/m 14,3 C 16,4 C 14,5 km/h (3 Bft)
17.10.2022 17:12 17,8 C 17,2 C 80 % 1024,8 hPa 0,0 l/m 9,9 km/h (2 Bft) S 185 0 min 0,0 UV-I 55 W/m 14,3 C 16,2 C 16,1 km/h (3 Bft)
17.10.2022 17:15 17,7 C 17,2 C 80 % 1024,8 hPa 0,0 l/m 13,1 km/h (3 Bft) S-SW 198 0 min 0,0 UV-I 52 W/m 14,2 C 15,0 C 20,9 km/h (4 Bft)
17.10.2022 17:18 17,7 C 17,2 C 80 % 1025,0 hPa 0,0 l/m 15,0 km/h (3 Bft) S-SW 209 0 min 0,0 UV-I 51 W/m 14,2 C 14,5 C 25,7 km/h (4 Bft)
17.10.2022 17:21 17,7 C 17,2 C 80 % 1025,0 hPa 0,0 l/m 12,7 km/h (3 Bft) S 178 0 min 0,0 UV-I 50 W/m 14,2 C 15,2 C 17,7 km/h (3 Bft)
17.10.2022 17:24 17,6 C 17,2 C 80 % 1025,1 hPa 0,0 l/m 12,7 km/h (3 Bft) S-SW 193 0 min 0,0 UV-I 46 W/m 14,1 C 15,0 C 19,3 km/h (3 Bft)
17.10.2022 17:27 17,6 C 17,2 C 81 % 1025,1 hPa 0,0 l/m 12,9 km/h (3 Bft) S-SW 197 0 min 0,0 UV-I 50 W/m 14,3 C 15,0 C 17,7 km/h (3 Bft)
17.10.2022 17:30 17,5 C 17,2 C 81 % 1025,1 hPa 0,0 l/m 11,8 km/h (2 Bft) SW 224 0 min 0,0 UV-I 54 W/m 14,2 C 15,2 C 17,7 km/h (3 Bft)
17.10.2022 17:33 17,5 C 16,7 C 81 % 1025,1 hPa 0,0 l/m 12,6 km/h (3 Bft) S-SW 193 0 min 0,0 UV-I 54 W/m 14,2 C 15,0 C 19,3 km/h (3 Bft)
17.10.2022 17:36 17,4 C 16,7 C 81 % 1025,2 hPa 0,0 l/m 10,9 km/h (2 Bft) S 171 0 min 0,0 UV-I 53 W/m 14,1 C 15,4 C 19,3 km/h (3 Bft)
17.10.2022 17:39 17,4 C 16,7 C 81 % 1025,2 hPa 0,0 l/m 12,3 km/h (3 Bft) S 180 0 min 0,0 UV-I 47 W/m 14,1 C 14,9 C 20,9 km/h (4 Bft)
17.10.2022 17:42 17,4 C 16,7 C 81 % 1025,1 hPa 0,0 l/m 13,5 km/h (3 Bft) SW 218 0 min 0,0 UV-I 45 W/m 14,1 C 14,5 C 20,9 km/h (4 Bft)
17.10.2022 17:45 17,4 C 16,7 C 81 % 1025,1 hPa 0,0 l/m 11,0 km/h (2 Bft) S 170 0 min 0,0 UV-I 44 W/m 14,1 C 15,4 C 16,1 km/h (3 Bft)
17.10.2022 17:48 17,4 C 16,7 C 81 % 1025,1 hPa 0,0 l/m 12,6 km/h (3 Bft) S-SW 194 0 min 0,0 UV-I 39 W/m 14,1 C 14,8 C 17,7 km/h (3 Bft)
17.10.2022 17:51 17,3 C 16,7 C 81 % 1025,2 hPa 0,0 l/m 11,5 km/h (2 Bft) S 178 0 min 0,0 UV-I 39 W/m 14,0 C 15,1 C 17,7 km/h (3 Bft)
17.10.2022 17:54 17,3 C 16,7 C 82 % 1025,2 hPa 0,0 l/m 13,2 km/h (3 Bft) S 182 0 min 0,0 UV-I 34 W/m 14,2 C 14,5 C 24,1 km/h (4 Bft)
17.10.2022 17:57 17,3 C 16,7 C 81 % 1025,2 hPa 0,0 l/m 10,3 km/h (2 Bft) S 184 0 min 0,0 UV-I 29 W/m 14,0 C 15,5 C 22,5 km/h (4 Bft)
17.10.2022 18:00 17,3 C 16,7 C 82 % 1025,2 hPa 0,0 l/m 10,4 km/h (2 Bft) S-SO 163 0 min 0,0 UV-I 28 W/m 14,2 C 15,5 C 16,1 km/h (3 Bft)
17.10.2022 18:03 17,2 C 16,7 C 82 % 1025,3 hPa 0,0 l/m 12,1 km/h (2 Bft) SW 214 0 min 0,0 UV-I 26 W/m 14,1 C 14,8 C 17,7 km/h (3 Bft)
17.10.2022 18:06 17,2 C 16,7 C 82 % 1025,3 hPa 0,0 l/m 12,4 km/h (3 Bft) SW 215 0 min 0,0 UV-I 23 W/m 14,1 C 14,7 C 17,7 km/h (3 Bft)
17.10.2022 18:09 17,2 C 16,1 C 82 % 1025,4 hPa 0,0 l/m 11,5 km/h (2 Bft) S-SW 192 0 min 0,0 UV-I 23 W/m 14,1 C 15,0 C 22,5 km/h (4 Bft)
17.10.2022 18:12 17,2 C 16,1 C 82 % 1025,3 hPa 0,0 l/m 7,5 km/h (2 Bft) S 185 0 min 0,0 UV-I 20 W/m 14,1 C 16,7 C 12,9 km/h (3 Bft)
17.10.2022 18:15 17,1 C 16,1 C 83 % 1025,4 hPa 0,0 l/m 9,2 km/h (2 Bft) S 191 0 min 0,0 UV-I 18 W/m 14,2 C 15,8 C 19,3 km/h (3 Bft)
17.10.2022 18:18 17,1 C 16,1 C 83 % 1025,5 hPa 0,0 l/m 8,9 km/h (2 Bft) S-SW 200 0 min 0,0 UV-I 16 W/m 14,2 C 15,9 C 14,5 km/h (3 Bft)
17.10.2022 18:21 17,1 C 16,1 C 83 % 1025,3 hPa 0,0 l/m 7,2 km/h (2 Bft) S-SW 200 0 min 0,0 UV-I 12 W/m 14,2 C 16,7 C 14,5 km/h (3 Bft)
17.10.2022 18:24 17,0 C 16,1 C 83 % 1025,3 hPa 0,0 l/m 7,2 km/h (2 Bft) S 190 0 min 0,0 UV-I 10 W/m 14,1 C 16,6 C 11,3 km/h (2 Bft)
17.10.2022 18:27 16,9 C 16,1 C 83 % 1025,3 hPa 0,0 l/m 5,0 km/h (1 Bft) S 177 0 min 0,0 UV-I 7 W/m 14,0 C 16,9 C 9,7 km/h (2 Bft)
17.10.2022 18:30 16,8 C 16,1 C 83 % 1025,4 hPa 0,0 l/m 7,1 km/h (2 Bft) S 169 0 min 0,0 UV-I 5 W/m 13,9 C 16,4 C 12,9 km/h (3 Bft)
17.10.2022 18:33 16,8 C 15,6 C 83 % 1025,3 hPa 0,0 l/m 4,9 km/h (1 Bft) S 188 0 min 0,0 UV-I 3 W/m 13,9 C 16,8 C 8,0 km/h (2 Bft)
17.10.2022 18:36 16,7 C 15,6 C 84 % 1025,4 hPa 0,0 l/m 5,2 km/h (1 Bft) S 188 0 min 0,0 UV-I 0 W/m 14,0 C 16,7 C 8,0 km/h (2 Bft)
17.10.2022 18:39 16,6 C 15,0 C 84 % 1025,5 hPa 0,0 l/m 5,4 km/h (1 Bft) S-SW 198 0 min 0,0 UV-I 0 W/m 13,9 C 16,6 C 8,0 km/h (2 Bft)
17.10.2022 18:42 16,5 C 15,0 C 84 % 1025,4 hPa 0,0 l/m 4,4 km/h (1 Bft) S 188 0 min 0,0 UV-I 0 W/m 13,8 C 16,5 C 6,4 km/h (2 Bft)
17.10.2022 18:45 16,4 C 15,0 C 85 % 1025,5 hPa 0,0 l/m 5,3 km/h (1 Bft) S-SW 204 0 min 0,0 UV-I 0 W/m 13,9 C 16,4 C 9,7 km/h (2 Bft)
17.10.2022 18:48 16,3 C 15,0 C 85 % 1025,5 hPa 0,0 l/m 6,4 km/h (2 Bft) S-SW 205 0 min 0,0 UV-I 0 W/m 13,8 C 16,3 C 8,0 km/h (2 Bft)
17.10.2022 18:51 16,3 C 15,0 C 85 % 1025,4 hPa 0,0 l/m 4,9 km/h (1 Bft) S-SW 205 0 min 0,0 UV-I 0 W/m 13,8 C 16,3 C 6,4 km/h (2 Bft)
17.10.2022 18:54 16,2 C 14,4 C 85 % 1025,3 hPa 0,0 l/m 3,3 km/h (1 Bft) S-SW 205 0 min 0,0 UV-I 0 W/m 13,7 C 16,2 C 4,8 km/h (1 Bft)
17.10.2022 18:57 16,1 C 14,4 C 85 % 1025,4 hPa 0,0 l/m 4,6 km/h (1 Bft) S-SW 205 0 min 0,0 UV-I 0 W/m 13,6 C 16,1 C 6,4 km/h (2 Bft)
17.10.2022 19:00 16,1 C 14,4 C 86 % 1025,4 hPa 0,0 l/m 4,6 km/h (1 Bft) S 188 0 min 0,0 UV-I 0 W/m 13,8 C 16,1 C 6,4 km/h (2 Bft)
17.10.2022 19:03 16,1 C 14,4 C 86 % 1025,4 hPa 0,0 l/m 4,6 km/h (1 Bft) S 189 0 min 0,0 UV-I 0 W/m 13,8 C 16,1 C 8,0 km/h (2 Bft)
17.10.2022 19:06 16,0 C 14,4 C 85 % 1025,4 hPa 0,0 l/m 1,6 km/h (1 Bft) S 189 0 min 0,0 UV-I 0 W/m 13,5 C 16,0 C 3,2 km/h (1 Bft)
17.10.2022 19:09 15,9 C 13,9 C 86 % 1025,4 hPa 0,0 l/m 2,5 km/h (1 Bft) S 189 0 min 0,0 UV-I 0 W/m 13,6 C 15,9 C 3,2 km/h (1 Bft)
17.10.2022 19:12 15,8 C 13,9 C 86 % 1025,5 hPa 0,0 l/m 3,2 km/h (1 Bft) S 189 0 min 0,0 UV-I 0 W/m 13,5 C 15,8 C 4,8 km/h (1 Bft)
17.10.2022 19:15 15,8 C 13,9 C 86 % 1025,5 hPa 0,0 l/m 3,3 km/h (1 Bft) S 189 0 min 0,0 UV-I 0 W/m 13,5 C 15,8 C 4,8 km/h (1 Bft)
17.10.2022 19:18 15,7 C 14,4 C 87 % 1025,6 hPa 0,0 l/m 4,4 km/h (1 Bft) S-SW 194 0 min 0,0 UV-I 0 W/m 13,5 C 15,7 C 6,4 km/h (2 Bft)
17.10.2022 19:21 15,7 C 14,4 C 87 % 1025,7 hPa 0,0 l/m 4,8 km/h (1 Bft) S-SW 211 0 min 0,0 UV-I 0 W/m 13,5 C 15,7 C 6,4 km/h (2 Bft)
17.10.2022 19:24 15,7 C 14,4 C 87 % 1025,7 hPa 0,0 l/m 4,4 km/h (1 Bft) S-SW 212 0 min 0,0 UV-I 0 W/m 13,5 C 15,7 C 6,4 km/h (2 Bft)
17.10.2022 19:27 15,6 C 14,4 C 87 % 1025,7 hPa 0,0 l/m 3,7 km/h (1 Bft) SW 214 0 min 0,0 UV-I 0 W/m 13,4 C 15,6 C 6,4 km/h (2 Bft)
17.10.2022 19:30 15,6 C 14,4 C 87 % 1025,8 hPa 0,0 l/m 3,3 km/h (1 Bft) SW 214 0 min 0,0 UV-I 0 W/m 13,4 C 15,6 C 6,4 km/h (2 Bft)
17.10.2022 19:33 15,6 C 14,4 C 87 % 1025,7 hPa 0,0 l/m 2,6 km/h (1 Bft) SW 214 0 min 0,0 UV-I 0 W/m 13,4 C 15,6 C 4,8 km/h (1 Bft)
17.10.2022 19:36 15,4 C 13,9 C 87 % 1025,8 hPa 0,0 l/m 2,9 km/h (1 Bft) SW 214 0 min 0,0 UV-I 0 W/m 13,2 C 15,4 C 4,8 km/h (1 Bft)
17.10.2022 19:39 15,4 C 13,9 C 87 % 1025,8 hPa 0,0 l/m 2,6 km/h (1 Bft) SW 214 0 min 0,0 UV-I 0 W/m 13,2 C 15,4 C 4,8 km/h (1 Bft)
17.10.2022 19:42 15,4 C 13,9 C 88 % 1025,8 hPa 0,0 l/m 3,3 km/h (1 Bft) SW 214 0 min 0,0 UV-I 0 W/m 13,4 C 15,4 C 4,8 km/h (1 Bft)
17.10.2022 19:45 15,4 C 13,9 C 88 % 1025,9 hPa 0,0 l/m 2,5 km/h (1 Bft) SW 214 0 min 0,0 UV-I 0 W/m 13,4 C 15,4 C 4,8 km/h (1 Bft)
17.10.2022 19:48 15,4 C 13,9 C 88 % 1025,9 hPa 0,0 l/m 2,5 km/h (1 Bft) SW 214 0 min 0,0 UV-I 0 W/m 13,4 C 15,4 C 4,8 km/h (1 Bft)
17.10.2022 19:51 15,4 C 13,9 C 88 % 1025,9 hPa 0,0 l/m 2,9 km/h (1 Bft) SW 214 0 min 0,0 UV-I 0 W/m 13,4 C 15,4 C 4,8 km/h (1 Bft)
17.10.2022 19:54 15,4 C 13,9 C 88 % 1025,9 hPa 0,0 l/m 2,3 km/h (1 Bft) SW 214 0 min 0,0 UV-I 0 W/m 13,4 C 15,4 C 4,8 km/h (1 Bft)
17.10.2022 19:57 15,4 C 13,9 C 88 % 1025,9 hPa 0,0 l/m 2,5 km/h (1 Bft) SW 214 0 min 0,0 UV-I 0 W/m 13,4 C 15,4 C 4,8 km/h (1 Bft)
17.10.2022 20:00 15,5 C 13,9 C 88 % 1025,9 hPa 0,0 l/m 2,2 km/h (1 Bft) SW 214 0 min 0,0 UV-I 0 W/m 13,5 C 15,5 C 3,2 km/h (1 Bft)
17.10.2022 20:03 15,5 C 13,9 C 88 % 1026,1 hPa 0,0 l/m 1,3 km/h (1 Bft) SW 214 0 min 0,0 UV-I 0 W/m 13,5 C 15,5 C 3,2 km/h (1 Bft)
17.10.2022 20:06 15,4 C 13,9 C 88 % 1026,0 hPa 0,0 l/m 1,6 km/h (1 Bft) SW 214 0 min 0,0 UV-I 0 W/m 13,4 C 15,4 C 3,2 km/h (1 Bft)
17.10.2022 20:09 15,4 C 13,9 C 88 % 1025,9 hPa 0,0 l/m 1,1 km/h (1 Bft) SW 214 0 min 0,0 UV-I 0 W/m 13,4 C 15,4 C 3,2 km/h (1 Bft)
17.10.2022 20:12 15,3 C 13,9 C 88 % 1025,9 hPa 0,0 l/m 0,3 km/h (0 Bft) SW 214 0 min 0,0 UV-I 0 W/m 13,3 C 15,3 C 1,6 km/h (1 Bft)
17.10.2022 20:15 15,3 C 13,9 C 89 % 1026,0 hPa 0,0 l/m 0,4 km/h (0 Bft) SW 214 0 min 0,0 UV-I 0 W/m 13,5 C 15,3 C 1,6 km/h (1 Bft)
17.10.2022 20:18 15,3 C 13,9 C 89 % 1026,0 hPa 0,0 l/m 0,0 km/h (0 Bft) SW 214 0 min 0,0 UV-I 0 W/m 13,5 C 15,3 C 0,0 km/h (0 Bft)
17.10.2022 20:21 15,2 C 13,9 C 89 % 1026,0 hPa 0,0 l/m 0,4 km/h (0 Bft) SW 214 0 min 0,0 UV-I 0 W/m 13,4 C 15,2 C 3,2 km/h (1 Bft)
17.10.2022 20:24 15,1 C 13,9 C 89 % 1026,1 hPa 0,0 l/m 0,2 km/h (0 Bft) SW 214 0 min 0,0 UV-I 0 W/m 13,3 C 15,1 C 1,6 km/h (1 Bft)
17.10.2022 20:27 15,1 C 13,9 C 90 % 1026,0 hPa 0,0 l/m 0,7 km/h (0 Bft) SW 214 0 min 0,0 UV-I 0 W/m 13,5 C 15,1 C 1,6 km/h (1 Bft)
17.10.2022 20:30 15,2 C 13,9 C 90 % 1026,2 hPa 0,0 l/m 0,6 km/h (0 Bft) SW 214 0 min 0,0 UV-I 0 W/m 13,6 C 15,2 C 1,6 km/h (1 Bft)
17.10.2022 20:33 15,2 C 13,9 C 90 % 1026,2 hPa 0,0 l/m 1,3 km/h (1 Bft) SW 214 0 min 0,0 UV-I 0 W/m 13,6 C 15,2 C 3,2 km/h (1 Bft)
17.10.2022 20:36 15,1 C 13,9 C 90 % 1026,1 hPa 0,0 l/m 1,3 km/h (1 Bft) SW 214 0 min 0,0 UV-I 0 W/m 13,5 C 15,1 C 3,2 km/h (1 Bft)
17.10.2022 20:39 15,2 C 13,9 C 90 % 1026,2 hPa 0,0 l/m 2,1 km/h (1 Bft) SW 214 0 min 0,0 UV-I 0 W/m 13,6 C 15,2 C 4,8 km/h (1 Bft)
17.10.2022 20:42 15,1 C 13,9 C 90 % 1026,2 hPa 0,2 l/m 1,3 km/h (1 Bft) SW 214 0 min 0,0 UV-I 0 W/m 13,5 C 15,1 C 3,2 km/h (1 Bft)
17.10.2022 20:45 14,9 C 13,3 C 90 % 1026,1 hPa 0,0 l/m 0,0 km/h (0 Bft) SW 214 0 min 0,0 UV-I 0 W/m 13,3 C 14,9 C 0,0 km/h (0 Bft)
17.10.2022 20:48 14,8 C 13,9 C 91 % 1026,1 hPa 0,0 l/m 0,2 km/h (0 Bft) SW 214 0 min 0,0 UV-I 0 W/m 13,3 C 14,8 C 1,6 km/h (1 Bft)
17.10.2022 20:51 14,7 C 13,3 C 91 % 1026,2 hPa 0,0 l/m 0,0 km/h (0 Bft) SW 214 0 min 0,0 UV-I 0 W/m 13,2 C 14,7 C 0,0 km/h (0 Bft)
17.10.2022 20:54 14,7 C 13,3 C 91 % 1026,2 hPa 0,0 l/m 0,0 km/h (0 Bft) SW 214 0 min 0,0 UV-I 0 W/m 13,2 C 14,7 C 0,0 km/h (0 Bft)
17.10.2022 20:57 14,7 C 13,3 C 91 % 1026,2 hPa 0,0 l/m 0,0 km/h (0 Bft) SW 214 0 min 0,0 UV-I 0 W/m 13,2 C 14,7 C 0,0 km/h (0 Bft)
17.10.2022 21:00 14,7 C 13,3 C 91 % 1026,2 hPa 0,0 l/m 0,0 km/h (0 Bft) SW 214 0 min 0,0 UV-I 0 W/m 13,2 C 14,7 C 0,0 km/h (0 Bft)
17.10.2022 21:03 14,7 C 13,3 C 92 % 1026,2 hPa 0,0 l/m 0,0 km/h (0 Bft) SW 214 0 min 0,0 UV-I 0 W/m 13,4 C 14,7 C 0,0 km/h (0 Bft)
17.10.2022 21:06 14,7 C 13,3 C 92 % 1026,3 hPa 0,0 l/m 0,0 km/h (0 Bft) SW 214 0 min 0,0 UV-I 0 W/m 13,4 C 14,7 C 0,0 km/h (0 Bft)
17.10.2022 21:09 14,7 C 13,3 C 92 % 1026,3 hPa 0,0 l/m 0,0 km/h (0 Bft) SW 214 0 min 0,0 UV-I 0 W/m 13,4 C 14,7 C 0,0 km/h (0 Bft)
17.10.2022 21:12 14,6 C 13,3 C 92 % 1026,4 hPa 0,0 l/m 0,0 km/h (0 Bft) SW 214 0 min 0,0 UV-I 0 W/m 13,3 C 14,6 C 0,0 km/h (0 Bft)
17.10.2022 21:15 14,6 C 13,3 C 92 % 1026,6 hPa 0,0 l/m 0,0 km/h (0 Bft) SW 214 0 min 0,0 UV-I 0 W/m 13,3 C 14,6 C 0,0 km/h (0 Bft)
17.10.2022 21:18 14,6 C 13,3 C 92 % 1026,4 hPa 0,0 l/m 0,4 km/h (0 Bft) SW 214 0 min 0,0 UV-I 0 W/m 13,3 C 14,6 C 1,6 km/h (1 Bft)
17.10.2022 21:21 14,6 C 13,3 C 92 % 1026,6 hPa 0,0 l/m 2,2 km/h (1 Bft) SW 214 0 min 0,0 UV-I 0 W/m 13,3 C 14,6 C 4,8 km/h (1 Bft)
17.10.2022 21:24 14,7 C 13,3 C 92 % 1026,7 hPa 0,0 l/m 2,1 km/h (1 Bft) SW 214 0 min 0,0 UV-I 0 W/m 13,4 C 14,7 C 3,2 km/h (1 Bft)
17.10.2022 21:27 14,7 C 13,3 C 92 % 1026,6 hPa 0,0 l/m 2,2 km/h (1 Bft) SW 214 0 min 0,0 UV-I 0 W/m 13,4 C 14,7 C 4,8 km/h (1 Bft)
17.10.2022 21:30 14,7 C 13,3 C 92 % 1026,5 hPa 0,2 l/m 1,6 km/h (1 Bft) SW 214 0 min 0,0 UV-I 0 W/m 13,4 C 14,7 C 4,8 km/h (1 Bft)
17.10.2022 21:33 14,8 C 13,9 C 92 % 1026,5 hPa 0,0 l/m 1,8 km/h (1 Bft) SW 214 0 min 0,0 UV-I 0 W/m 13,5 C 14,8 C 3,2 km/h (1 Bft)
17.10.2022 21:36 14,7 C 13,9 C 92 % 1026,6 hPa 0,0 l/m 1,1 km/h (1 Bft) SW 214 0 min 0,0 UV-I 0 W/m 13,4 C 14,7 C 3,2 km/h (1 Bft)
17.10.2022 21:39 14,5 C 13,3 C 92 % 1026,6 hPa 0,0 l/m 0,1 km/h (0 Bft) SW 214 0 min 0,0 UV-I 0 W/m 13,2 C 14,5 C 1,6 km/h (1 Bft)
17.10.2022 21:42 14,4 C 13,3 C 92 % 1026,5 hPa 0,0 l/m 0,3 km/h (0 Bft) SW 214 0 min 0,0 UV-I 0 W/m 13,1 C 14,4 C 1,6 km/h (1 Bft)
17.10.2022 21:45 14,4 C 13,3 C 92 % 1026,6 hPa 0,0 l/m 0,1 km/h (0 Bft) SW 214 0 min 0,0 UV-I 0 W/m 13,1 C 14,4 C 1,6 km/h (1 Bft)
17.10.2022 21:48 14,4 C 13,3 C 93 % 1026,6 hPa 0,0 l/m 0,9 km/h (0 Bft) SW 214 0 min 0,0 UV-I 0 W/m 13,3 C 14,4 C 3,2 km/h (1 Bft)
17.10.2022 21:51 14,6 C 13,3 C 93 % 1026,5 hPa 0,0 l/m 1,7 km/h (1 Bft) SW 214 0 min 0,0 UV-I 0 W/m 13,5 C 14,6 C 3,2 km/h (1 Bft)
17.10.2022 21:54 14,7 C 13,3 C 93 % 1026,6 hPa 0,0 l/m 1,3 km/h (1 Bft) SW 214 0 min 0,0 UV-I 0 W/m 13,6 C 14,7 C 3,2 km/h (1 Bft)
17.10.2022 21:57 14,7 C 13,3 C 93 % 1026,5 hPa 0,0 l/m 0,1 km/h (0 Bft) SW 214 0 min 0,0 UV-I 0 W/m 13,6 C 14,7 C 1,6 km/h (1 Bft)
17.10.2022 22:00 14,7 C 13,3 C 93 % 1026,4 hPa 0,2 l/m 0,0 km/h (0 Bft) SW 214 0 min 0,0 UV-I 0 W/m 13,6 C 14,7 C 1,6 km/h (1 Bft)
17.10.2022 22:03 14,6 C 13,3 C 93 % 1026,3 hPa 0,0 l/m 0,0 km/h (0 Bft) SW 214 0 min 0,0 UV-I 0 W/m 13,5 C 14,6 C 1,6 km/h (1 Bft)
17.10.2022 22:06 14,4 C 13,3 C 92 % 1026,4 hPa 0,0 l/m 0,0 km/h (0 Bft) SW 214 0 min 0,0 UV-I 0 W/m 13,1 C 14,4 C 0,0 km/h (0 Bft)
17.10.2022 22:09 14,3 C 13,3 C 93 % 1026,4 hPa 0,0 l/m 0,0 km/h (0 Bft) SW 214 0 min 0,0 UV-I 0 W/m 13,2 C 14,3 C 0,0 km/h (0 Bft)
17.10.2022 22:12 14,3 C 13,3 C 93 % 1026,3 hPa 0,0 l/m 0,0 km/h (0 Bft) SW 214 0 min 0,0 UV-I 0 W/m 13,2 C 14,3 C 0,0 km/h (0 Bft)
17.10.2022 22:15 14,3 C 13,3 C 93 % 1026,3 hPa 0,0 l/m 0,0 km/h (0 Bft) SW 214 0 min 0,0 UV-I 0 W/m 13,2 C 14,3 C 0,0 km/h (0 Bft)
17.10.2022 22:18 14,3 C 13,3 C 93 % 1026,4 hPa 0,0 l/m 0,0 km/h (0 Bft) SW 214 0 min 0,0 UV-I 0 W/m 13,2 C 14,3 C 0,0 km/h (0 Bft)
17.10.2022 22:21 14,3 C 13,3 C 93 % 1026,2 hPa 0,0 l/m 0,1 km/h (0 Bft) SW 214 0 min 0,0 UV-I 0 W/m 13,2 C 14,3 C 1,6 km/h (1 Bft)
17.10.2022 22:24 14,3 C 13,3 C 93 % 1026,2 hPa 0,0 l/m 0,0 km/h (0 Bft) SW 214 0 min 0,0 UV-I 0 W/m 13,2 C 14,3 C 0,0 km/h (0 Bft)
17.10.2022 22:27 14,3 C 13,3 C 93 % 1026,2 hPa 0,0 l/m 1,0 km/h (0 Bft) SW 214 0 min 0,0 UV-I 0 W/m 13,2 C 14,3 C 1,6 km/h (1 Bft)
17.10.2022 22:30 14,3 C 13,3 C 93 % 1026,3 hPa 0,0 l/m 1,5 km/h (1 Bft) SW 214 0 min 0,0 UV-I 0 W/m 13,2 C 14,3 C 3,2 km/h (1 Bft)
17.10.2022 22:33 14,4 C 13,3 C 93 % 1026,3 hPa 0,2 l/m 0,2 km/h (0 Bft) SW 214 0 min 0,0 UV-I 0 W/m 13,3 C 14,4 C 1,6 km/h (1 Bft)
17.10.2022 22:36 14,3 C 13,3 C 93 % 1026,3 hPa 0,0 l/m 0,2 km/h (0 Bft) SW 214 0 min 0,0 UV-I 0 W/m 13,2 C 14,3 C 1,6 km/h (1 Bft)
17.10.2022 22:39 14,3 C 13,3 C 93 % 1026,2 hPa 0,0 l/m 0,2 km/h (0 Bft) SW 214 0 min 0,0 UV-I 0 W/m 13,2 C 14,3 C 1,6 km/h (1 Bft)
17.10.2022 22:42 14,4 C 13,3 C 93 % 1026,4 hPa 0,0 l/m 0,0 km/h (0 Bft) SW 214 0 min 0,0 UV-I 0 W/m 13,3 C 14,4 C 1,6 km/h (1 Bft)
17.10.2022 22:45 14,4 C 13,3 C 94 % 1026,5 hPa 0,0 l/m 0,0 km/h (0 Bft) SW 214 0 min 0,0 UV-I 0 W/m 13,4 C 14,4 C 0,0 km/h (0 Bft)
17.10.2022 22:48 14,5 C 13,3 C 94 % 1026,6 hPa 0,0 l/m 0,0 km/h (0 Bft) SW 214 0 min 0,0 UV-I 0 W/m 13,5 C 14,5 C 0,0 km/h (0 Bft)
17.10.2022 22:51 14,5 C 13,3 C 94 % 1026,7 hPa 0,0 l/m 0,0 km/h (0 Bft) SW 214 0 min 0,0 UV-I 0 W/m 13,5 C 14,5 C 0,0 km/h (0 Bft)
17.10.2022 22:54 14,4 C 13,3 C 93 % 1026,6 hPa 0,0 l/m 0,0 km/h (0 Bft) SW 214 0 min 0,0 UV-I 0 W/m 13,3 C 14,4 C 0,0 km/h (0 Bft)
17.10.2022 22:57 14,4 C 13,3 C 94 % 1026,6 hPa 0,0 l/m 0,0 km/h (0 Bft) SW 214 0 min 0,0 UV-I 0 W/m 13,4 C 14,4 C 0,0 km/h (0 Bft)
17.10.2022 23:00 14,4 C 13,3 C 94 % 1026,7 hPa 0,2 l/m 0,0 km/h (0 Bft) SW 214 0 min 0,0 UV-I 0 W/m 13,4 C 14,4 C 0,0 km/h (0 Bft)
17.10.2022 23:03 14,4 C 13,3 C 94 % 1026,7 hPa 0,0 l/m 0,0 km/h (0 Bft) SW 214 0 min 0,0 UV-I 0 W/m 13,4 C 14,4 C 0,0 km/h (0 Bft)
17.10.2022 23:06 14,4 C 13,3 C 94 % 1026,8 hPa 0,0 l/m 0,0 km/h (0 Bft) SW 214 0 min 0,0 UV-I 0 W/m 13,4 C 14,4 C 0,0 km/h (0 Bft)
17.10.2022 23:09 14,4 C 13,3 C 94 % 1026,9 hPa 0,0 l/m 0,3 km/h (0 Bft) SW 214 0 min 0,0 UV-I 0 W/m 13,4 C 14,4 C 1,6 km/h (1 Bft)
17.10.2022 23:12 14,4 C 13,3 C 94 % 1027,0 hPa 0,0 l/m 0,0 km/h (0 Bft) SW 214 0 min 0,0 UV-I 0 W/m 13,4 C 14,4 C 1,6 km/h (1 Bft)
17.10.2022 23:15 14,3 C 13,3 C 93 % 1026,9 hPa 0,2 l/m 1,2 km/h (1 Bft) SW 214 0 min 0,0 UV-I 0 W/m 13,2 C 14,3 C 3,2 km/h (1 Bft)
17.10.2022 23:18 14,4 C 13,3 C 94 % 1026,9 hPa 0,2 l/m 2,5 km/h (1 Bft) SW 214 0 min 0,0 UV-I 0 W/m 13,4 C 14,4 C 4,8 km/h (1 Bft)
17.10.2022 23:21 14,6 C 13,3 C 94 % 1026,9 hPa 0,0 l/m 2,1 km/h (1 Bft) SW 214 0 min 0,0 UV-I 0 W/m 13,6 C 14,6 C 3,2 km/h (1 Bft)
17.10.2022 23:24 14,6 C 13,9 C 94 % 1026,9 hPa 0,2 l/m 2,1 km/h (1 Bft) SW 214 0 min 0,0 UV-I 0 W/m 13,6 C 14,6 C 4,8 km/h (1 Bft)
17.10.2022 23:27 14,7 C 13,9 C 94 % 1026,9 hPa 0,0 l/m 2,5 km/h (1 Bft) SW 214 0 min 0,0 UV-I 0 W/m 13,7 C 14,7 C 4,8 km/h (1 Bft)
17.10.2022 23:30 14,7 C 13,9 C 94 % 1027,0 hPa 0,2 l/m 3,6 km/h (1 Bft) SW 214 0 min 0,0 UV-I 0 W/m 13,7 C 14,7 C 4,8 km/h (1 Bft)
17.10.2022 23:33 14,8 C 13,9 C 94 % 1027,0 hPa 0,0 l/m 2,7 km/h (1 Bft) S-SW 205 0 min 0,0 UV-I 0 W/m 13,8 C 14,8 C 4,8 km/h (1 Bft)
17.10.2022 23:36 14,8 C 13,9 C 94 % 1027,0 hPa 0,2 l/m 2,3 km/h (1 Bft) S-SW 205 0 min 0,0 UV-I 0 W/m 13,8 C 14,8 C 4,8 km/h (1 Bft)
17.10.2022 23:39 14,7 C 13,9 C 94 % 1026,9 hPa 0,0 l/m 0,7 km/h (0 Bft) S-SW 205 0 min 0,0 UV-I 0 W/m 13,7 C 14,7 C 3,2 km/h (1 Bft)
17.10.2022 23:42 14,7 C 13,9 C 94 % 1026,8 hPa 0,0 l/m 0,1 km/h (0 Bft) S-SW 205 0 min 0,0 UV-I 0 W/m 13,7 C 14,7 C 1,6 km/h (1 Bft)
17.10.2022 23:45 14,6 C 13,3 C 94 % 1026,8 hPa 0,2 l/m 0,0 km/h (0 Bft) S-SW 205 0 min 0,0 UV-I 0 W/m 13,6 C 14,6 C 0,0 km/h (0 Bft)
17.10.2022 23:48 14,4 C 13,3 C 94 % 1027,0 hPa 0,0 l/m 0,3 km/h (0 Bft) S-SW 205 0 min 0,0 UV-I 0 W/m 13,4 C 14,4 C 1,6 km/h (1 Bft)
17.10.2022 23:51 14,2 C 13,3 C 93 % 1027,0 hPa 0,0 l/m 0,8 km/h (0 Bft) S-SW 205 0 min 0,0 UV-I 0 W/m 13,1 C 14,2 C 3,2 km/h (1 Bft)
17.10.2022 23:54 14,2 C 13,3 C 94 % 1027,0 hPa 0,2 l/m 3,6 km/h (1 Bft) S 182 0 min 0,0 UV-I 0 W/m 13,2 C 14,2 C 8,0 km/h (2 Bft)
17.10.2022 23:57 14,5 C 13,9 C 94 % 1027,0 hPa 0,2 l/m 3,1 km/h (1 Bft) S 182 0 min 0,0 UV-I 0 W/m 13,5 C 14,5 C 6,4 km/h (2 Bft)
_ Min-Zeit 08:24 02:30 14:15 00:00 - 20:18 - - - - - 08:24 06:36 20:18
Minimum _ 13,4 C 12,2 C 78 % 1019,2 hPa - 0,0 km/h (0 Bft) - - - - - 11,8 C 9,5 C 0,0 km/h (0 Bft)
_ Max-Zeit 14:15 13:03 22:45 23:12 20:42 14:54 - - 11:27 13:06 14:12 13:21 12:45 11:51
Maximum _ 19,2 C 22,8 C 94 % 1027,0 hPa 0,2 l/m 23,1 km/h
S-SO (4 Bft)
- - 3 min 2,3 UV-I 479 W/m 15,5 C 17,5 C 37,0 km/h
S-SO (5 Bft)
Durchschnitt _ 15,6 C 15,1 C 87 % 1022,9 hPa #2,6 l/m 8,9 km/h (2 Bft) S-SO - #1:18 h 1,2 UV-I 147 W/m 13,4 C 13,9 C 15,2 km/h (3 Bft)